ECMWFFLT1_prec_pwat_030.txt.gz
Precipitable_Water
0.87 0.92 0.97 1.02 1.04 1.04 1.06 1.08 1.10 1.10 1.08 1.05 1.07 1.10 1.11 1.10 1.06 1.01 0.95 0.92 0.91 0.92 0.98 1.02 1.03 1.07 1.09 1.12 1.16 1.19 1.20 1.20 1.20 1.15 1.12 1.10 1.11 1.11 1.10 1.11 1.10 1.11 1.14 1.13 1.17 1.23 1.30 1.40 1.45 1.48 1.49 1.49 1.51 1.52 1.52 1.52 1.49 1.48 1.44 1.37 1.29 1.25 1.23
0.78 0.85 0.91 0.98 1.01 1.03 1.06 1.09 1.12 1.13 1.13 1.11 1.09 1.10 1.15 1.17 1.19 1.17 1.10 1.03 0.97 0.94 0.97 1.02 1.05 1.06 1.07 1.08 1.13 1.16 1.18 1.18 1.19 1.19 1.18 1.16 1.17 1.16 1.15 1.14 1.12 1.10 1.12 1.15 1.19 1.27 1.33 1.37 1.45 1.49 1.48 1.50 1.51 1.55 1.53 1.50 1.46 1.44 1.39 1.32 1.23 1.20 1.24
0.72 0.78 0.84 0.91 0.96 0.99 1.03 1.07 1.12 1.15 1.16 1.17 1.16 1.13 1.13 1.16 1.22 1.22 1.23 1.22 1.17 1.10 1.09 1.09 1.10 1.09 1.11 1.12 1.12 1.13 1.16 1.19 1.20 1.19 1.17 1.13 1.12 1.13 1.16 1.16 1.15 1.13 1.14 1.19 1.22 1.24 1.32 1.36 1.45 1.51 1.50 1.50 1.52 1.55 1.54 1.49 1.43 1.40 1.36 1.30 1.22 1.17 1.19
0.69 0.73 0.77 0.83 0.89 0.97 1.02 1.05 1.08 1.13 1.18 1.20 1.20 1.18 1.16 1.17 1.23 1.28 1.29 1.29 1.29 1.29 1.22 1.17 1.16 1.15 1.16 1.17 1.17 1.18 1.19 1.20 1.21 1.19 1.18 1.18 1.16 1.18 1.17 1.16 1.16 1.18 1.17 1.17 1.21 1.25 1.29 1.36 1.42 1.48 1.51 1.50 1.52 1.56 1.55 1.49 1.42 1.37 1.33 1.28 1.23 1.19 1.20
0.64 0.70 0.74 0.79 0.86 0.93 0.99 1.05 1.08 1.11 1.15 1.21 1.25 1.26 1.23 1.22 1.26 1.30 1.33 1.36 1.36 1.33 1.31 1.29 1.27 1.22 1.20 1.21 1.20 1.21 1.20 1.20 1.22 1.23 1.23 1.23 1.23 1.23 1.19 1.14 1.14 1.13 1.14 1.20 1.26 1.26 1.27 1.32 1.38 1.44 1.47 1.50 1.52 1.55 1.53 1.51 1.43 1.37 1.32 1.29 1.23 1.21 1.20
0.55 0.60 0.64 0.70 0.78 0.86 0.93 1.00 1.06 1.09 1.13 1.17 1.23 1.27 1.28 1.28 1.30 1.31 1.34 1.37 1.38 1.39 1.41 1.43 1.41 1.40 1.33 1.29 1.25 1.25 1.28 1.28 1.29 1.29 1.28 1.27 1.25 1.22 1.18 1.16 1.14 1.14 1.15 1.18 1.25 1.26 1.29 1.31 1.34 1.40 1.43 1.47 1.50 1.53 1.53 1.50 1.45 1.39 1.33 1.30 1.26 1.23 1.20
0.52 0.54 0.58 0.66 0.73 0.80 0.86 0.94 1.02 1.09 1.14 1.18 1.23 1.27 1.29 1.29 1.29 1.29 1.33 1.36 1.40 1.39 1.40 1.39 1.39 1.40 1.40 1.43 1.41 1.38 1.33 1.32 1.33 1.32 1.34 1.32 1.30 1.24 1.21 1.21 1.19 1.17 1.18 1.23 1.23 1.28 1.29 1.29 1.30 1.35 1.42 1.46 1.49 1.50 1.48 1.47 1.43 1.41 1.36 1.31 1.28 1.28 1.24
0.51 0.52 0.55 0.62 0.69 0.76 0.81 0.88 0.97 1.06 1.14 1.19 1.22 1.24 1.27 1.30 1.30 1.31 1.33 1.36 1.39 1.42 1.42 1.38 1.37 1.37 1.39 1.44 1.45 1.43 1.42 1.42 1.43 1.42 1.39 1.33 1.30 1.24 1.22 1.21 1.19 1.19 1.21 1.19 1.24 1.28 1.28 1.28 1.29 1.32 1.40 1.45 1.47 1.48 1.46 1.47 1.45 1.41 1.35 1.29 1.30 1.30 1.30
0.50 0.50 0.51 0.59 0.66 0.72 0.79 0.85 0.93 1.01 1.09 1.14 1.18 1.21 1.24 1.26 1.27 1.28 1.30 1.34 1.38 1.39 1.38 1.39 1.36 1.38 1.42 1.43 1.43 1.42 1.45 1.47 1.45 1.44 1.41 1.35 1.30 1.25 1.23 1.22 1.22 1.23 1.18 1.19 1.23 1.28 1.29 1.30 1.28 1.28 1.35 1.42 1.45 1.45 1.44 1.46 1.45 1.42 1.35 1.30 1.31 1.31 1.30
0.47 0.49 0.53 0.60 0.66 0.72 0.78 0.84 0.91 0.99 1.05 1.12 1.17 1.20 1.23 1.25 1.26 1.28 1.30 1.33 1.37 1.36 1.36 1.39 1.39 1.41 1.42 1.42 1.43 1.47 1.49 1.47 1.47 1.44 1.41 1.35 1.33 1.26 1.25 1.25 1.24 1.23 1.20 1.21 1.25 1.25 1.29 1.32 1.30 1.28 1.31 1.35 1.41 1.41 1.41 1.44 1.44 1.41 1.35 1.31 1.32 1.33 1.33
0.49 0.52 0.56 0.61 0.63 0.66 0.71 0.79 0.85 0.93 1.00 1.06 1.12 1.17 1.20 1.23 1.24 1.26 1.27 1.32 1.34 1.35 1.38 1.41 1.43 1.41 1.40 1.41 1.42 1.45 1.46 1.46 1.48 1.43 1.42 1.40 1.37 1.32 1.29 1.27 1.25 1.23 1.20 1.23 1.24 1.28 1.29 1.30 1.32 1.29 1.30 1.30 1.33 1.35 1.38 1.41 1.42 1.39 1.35 1.34 1.35 1.34 1.36
0.47 0.49 0.52 0.57 0.61 0.65 0.67 0.72 0.79 0.86 0.95 1.03 1.09 1.14 1.18 1.21 1.22 1.24 1.27 1.30 1.33 1.34 1.39 1.42 1.44 1.42 1.41 1.42 1.41 1.42 1.42 1.44 1.45 1.43 1.42 1.42 1.41 1.37 1.32 1.28 1.24 1.21 1.22 1.23 1.24 1.28 1.28 1.27 1.28 1.27 1.26 1.29 1.30 1.31 1.35 1.40 1.40 1.39 1.37 1.35 1.36 1.36 1.38
0.45 0.46 0.47 0.50 0.53 0.57 0.63 0.70 0.77 0.82 0.89 0.97 1.04 1.11 1.16 1.20 1.22 1.22 1.25 1.28 1.34 1.38 1.40 1.41 1.43 1.43 1.42 1.42 1.41 1.39 1.39 1.41 1.42 1.45 1.47 1.46 1.44 1.42 1.35 1.27 1.22 1.19 1.17 1.23 1.26 1.26 1.24 1.26 1.26 1.27 1.26 1.28 1.30 1.28 1.32 1.35 1.38 1.37 1.38 1.39 1.39 1.39 1.38
0.40 0.42 0.44 0.50 0.54 0.57 0.60 0.65 0.73 0.80 0.85 0.91 0.98 1.06 1.12 1.17 1.20 1.22 1.25 1.27 1.32 1.37 1.38 1.40 1.41 1.41 1.41 1.41 1.41 1.39 1.37 1.39 1.44 1.48 1.50 1.51 1.49 1.45 1.38 1.29 1.21 1.17 1.19 1.22 1.22 1.23 1.23 1.22 1.23 1.24 1.26 1.27 1.29 1.30 1.32 1.33 1.33 1.35 1.37 1.40 1.41 1.40 1.38
0.32 0.34 0.36 0.42 0.48 0.53 0.58 0.64 0.69 0.74 0.82 0.88 0.94 0.98 1.02 1.07 1.12 1.17 1.22 1.26 1.30 1.34 1.34 1.36 1.37 1.37 1.38 1.39 1.37 1.37 1.39 1.43 1.48 1.52 1.54 1.54 1.51 1.47 1.42 1.34 1.24 1.20 1.19 1.18 1.19 1.23 1.25 1.25 1.24 1.22 1.23 1.27 1.29 1.30 1.32 1.29 1.29 1.32 1.34 1.37 1.39 1.40 1.37
0.30 0.33 0.37 0.41 0.45 0.50 0.55 0.59 0.63 0.69 0.76 0.84 0.91 0.93 0.96 1.00 1.05 1.09 1.12 1.16 1.22 1.25 1.29 1.34 1.32 1.32 1.34 1.34 1.34 1.37 1.42 1.45 1.49 1.51 1.54 1.53 1.50 1.48 1.45 1.40 1.31 1.22 1.18 1.17 1.18 1.20 1.22 1.21 1.22 1.22 1.21 1.22 1.25 1.29 1.29 1.27 1.28 1.30 1.33 1.37 1.36 1.36 1.36
0.32 0.35 0.38 0.40 0.44 0.51 0.56 0.61 0.64 0.69 0.74 0.81 0.87 0.90 0.93 0.96 1.00 1.04 1.07 1.11 1.16 1.20 1.26 1.30 1.28 1.31 1.31 1.29 1.33 1.39 1.43 1.45 1.46 1.50 1.50 1.52 1.54 1.54 1.50 1.45 1.39 1.27 1.17 1.13 1.14 1.13 1.15 1.16 1.15 1.17 1.21 1.22 1.22 1.23 1.25 1.24 1.24 1.26 1.31 1.34 1.36 1.36 1.36
0.34 0.35 0.35 0.35 0.39 0.46 0.52 0.59 0.66 0.71 0.72 0.76 0.82 0.86 0.91 0.94 0.98 1.03 1.05 1.11 1.15 1.18 1.26 1.29 1.29 1.28 1.28 1.28 1.34 1.40 1.41 1.42 1.45 1.47 1.49 1.54 1.54 1.56 1.57 1.53 1.44 1.31 1.20 1.12 1.08 1.09 1.12 1.09 1.08 1.14 1.20 1.21 1.22 1.21 1.22 1.21 1.22 1.25 1.29 1.32 1.34 1.36 1.36
0.29 0.35 0.35 0.37 0.39 0.43 0.49 0.57 0.66 0.72 0.75 0.77 0.82 0.88 0.93 0.97 1.00 1.01 1.06 1.09 1.14 1.23 1.26 1.25 1.26 1.27 1.28 1.31 1.35 1.38 1.41 1.44 1.45 1.46 1.49 1.51 1.56 1.60 1.61 1.57 1.49 1.38 1.26 1.13 1.09 1.09 1.06 1.03 1.05 1.09 1.15 1.17 1.16 1.17 1.22 1.20 1.21 1.24 1.28 1.31 1.33 1.35 1.37
0.31 0.34 0.37 0.39 0.41 0.43 0.48 0.57 0.63 0.70 0.76 0.78 0.82 0.86 0.92 0.99 1.00 1.03 1.09 1.13 1.20 1.23 1.25 1.24 1.25 1.26 1.27 1.31 1.34 1.36 1.40 1.42 1.43 1.44 1.47 1.54 1.58 1.60 1.59 1.58 1.51 1.46 1.38 1.26 1.16 1.09 1.07 1.06 1.04 1.06 1.09 1.11 1.12 1.16 1.21 1.19 1.20 1.23 1.27 1.30 1.32 1.34 1.36
0.34 0.36 0.39 0.40 0.42 0.44 0.49 0.56 0.60 0.63 0.71 0.78 0.81 0.86 0.92 0.97 1.02 1.09 1.16 1.20 1.21 1.21 1.21 1.23 1.23 1.24 1.27 1.29 1.32 1.36 1.38 1.40 1.42 1.43 1.49 1.54 1.57 1.59 1.57 1.56 1.55 1.51 1.45 1.36 1.23 1.13 1.08 1.06 1.04 1.05 1.07 1.10 1.14 1.17 1.19 1.19 1.21 1.23 1.26 1.29 1.31 1.33 1.35
0.39 0.42 0.40 0.42 0.43 0.46 0.50 0.53 0.57 0.62 0.69 0.80 0.88 0.91 0.93 0.95 1.02 1.06 1.09 1.17 1.17 1.19 1.21 1.23 1.24 1.25 1.30 1.31 1.33 1.34 1.36 1.38 1.41 1.46 1.52 1.55 1.58 1.57 1.56 1.57 1.56 1.52 1.51 1.44 1.35 1.27 1.21 1.18 1.15 1.09 1.09 1.13 1.16 1.16 1.15 1.19 1.23 1.24 1.27 1.29 1.31 1.33 1.36
0.50 0.50 0.53 0.54 0.53 0.51 0.60 0.67 0.67 0.67 0.76 0.84 0.90 0.94 0.96 1.02 1.06 1.06 1.09 1.12 1.16 1.19 1.21 1.24 1.24 1.27 1.31 1.31 1.32 1.34 1.37 1.40 1.42 1.47 1.52 1.56 1.58 1.58 1.59 1.58 1.57 1.59 1.60 1.49 1.40 1.31 1.24 1.18 1.16 1.15 1.14 1.14 1.16 1.14 1.13 1.18 1.23 1.25 1.27 1.29 1.31 1.34 1.38
0.61 0.62 0.62 0.63 0.64 0.62 0.70 0.79 0.77 0.74 0.76 0.83 0.88 0.94 0.98 1.01 1.04 1.08 1.09 1.11 1.16 1.20 1.22 1.23 1.23 1.28 1.30 1.27 1.30 1.33 1.38 1.42 1.44 1.45 1.48 1.52 1.51 1.53 1.58 1.64 1.65 1.62 1.63 1.53 1.45 1.37 1.31 1.27 1.23 1.22 1.21 1.16 1.13 1.13 1.13 1.17 1.24 1.25 1.26 1.28 1.32 1.36 1.39
0.66 0.68 0.70 0.71 0.68 0.65 0.76 0.85 0.84 0.80 0.79 0.79 0.80 0.89 0.96 0.98 1.00 1.01 1.02 1.08 1.13 1.17 1.17 1.17 1.19 1.24 1.21 1.20 1.25 1.31 1.38 1.41 1.42 1.43 1.44 1.44 1.44 1.49 1.54 1.59 1.61 1.65 1.69 1.63 1.57 1.48 1.44 1.38 1.30 1.26 1.25 1.21 1.16 1.17 1.17 1.20 1.25 1.27 1.27 1.29 1.33 1.40 1.45
0.70 0.72 0.75 0.77 0.78 0.80 0.88 0.93 0.86 0.79 0.76 0.76 0.81 0.90 0.96 1.00 1.02 1.02 1.03 1.07 1.13 1.14 1.13 1.15 1.17 1.15 1.11 1.19 1.27 1.32 1.37 1.41 1.41 1.40 1.39 1.40 1.48 1.56 1.59 1.66 1.72 1.73 1.70 1.68 1.64 1.56 1.52 1.45 1.37 1.29 1.25 1.25 1.23 1.21 1.20 1.21 1.25 1.27 1.28 1.30 1.35 1.43 1.48
0.78 0.80 0.78 0.80 0.81 0.90 0.91 0.90 0.83 0.77 0.78 0.82 0.85 0.92 0.97 0.99 0.98 1.00 1.03 1.06 1.06 1.03 1.07 1.13 1.15 1.14 1.17 1.24 1.27 1.30 1.32 1.36 1.39 1.37 1.38 1.37 1.37 1.45 1.55 1.65 1.67 1.72 1.74 1.71 1.72 1.67 1.59 1.50 1.43 1.35 1.31 1.31 1.29 1.25 1.24 1.25 1.25 1.25 1.27 1.30 1.36 1.44 1.50
0.82 0.83 0.88 0.92 0.97 0.98 0.96 0.92 0.84 0.78 0.81 0.88 0.92 0.93 0.98 0.99 0.96 0.99 1.04 1.04 1.01 1.02 1.10 1.17 1.18 1.21 1.24 1.26 1.29 1.34 1.38 1.38 1.40 1.41 1.36 1.38 1.41 1.42 1.44 1.55 1.66 1.73 1.75 1.77 1.73 1.68 1.62 1.58 1.50 1.40 1.34 1.34 1.33 1.30 1.28 1.29 1.29 1.25 1.26 1.31 1.38 1.46 1.55
0.79 0.75 0.76 0.79 0.81 0.91 0.93 0.88 0.84 0.83 0.84 0.89 0.93 0.98 1.01 1.01 0.98 1.00 1.03 1.01 1.01 1.10 1.16 1.19 1.23 1.27 1.28 1.28 1.29 1.31 1.34 1.38 1.40 1.42 1.44 1.44 1.45 1.43 1.41 1.47 1.56 1.64 1.72 1.75 1.74 1.68 1.64 1.62 1.57 1.48 1.40 1.37 1.35 1.34 1.33 1.32 1.33 1.30 1.30 1.35 1.42 1.49 1.58
0.82 0.81 0.80 0.83 0.83 0.85 0.87 0.84 0.88 0.91 0.97 1.00 1.02 1.03 1.07 1.04 1.00 1.01 1.01 1.02 1.19 1.25 1.25 1.25 1.27 1.30 1.29 1.29 1.29 1.32 1.34 1.37 1.41 1.46 1.47 1.44 1.47 1.49 1.50 1.49 1.47 1.49 1.58 1.64 1.67 1.67 1.63 1.63 1.62 1.56 1.47 1.37 1.33 1.33 1.34 1.36 1.38 1.38 1.39 1.42 1.48 1.55 1.64
0.84 0.82 0.82 0.81 0.84 0.89 0.89 0.86 0.86 0.91 0.96 1.03 1.06 1.07 1.09 1.15 1.09 1.07 1.03 1.15 1.21 1.19 1.21 1.23 1.25 1.25 1.26 1.28 1.32 1.34 1.37 1.41 1.44 1.45 1.47 1.50 1.50 1.47 1.48 1.49 1.53 1.50 1.50 1.52 1.55 1.57 1.55 1.55 1.58 1.55 1.50 1.42 1.34 1.31 1.35 1.42 1.46 1.45 1.48 1.53 1.58 1.65 1.74
0.84 0.86 0.86 0.87 0.87 0.91 0.91 0.93 0.93 0.92 0.91 0.97 1.05 1.08 1.13 1.15 1.17 1.08 1.13 1.22 1.26 1.28 1.25 1.24 1.23 1.22 1.23 1.28 1.33 1.37 1.41 1.43 1.45 1.48 1.51 1.54 1.59 1.57 1.53 1.49 1.51 1.53 1.56 1.58 1.47 1.42 1.37 1.41 1.48 1.50 1.52 1.49 1.39 1.32 1.37 1.45 1.48 1.51 1.59 1.65 1.71 1.79 1.83
0.78 0.77 0.75 0.74 0.82 0.87 0.87 0.88 0.87 0.89 0.90 0.90 1.00 1.04 1.07 1.10 1.14 1.19 1.24 1.25 1.27 1.27 1.28 1.26 1.21 1.20 1.22 1.24 1.29 1.34 1.39 1.37 1.37 1.41 1.47 1.51 1.54 1.57 1.59 1.60 1.57 1.52 1.49 1.53 1.56 1.57 1.56 1.51 1.45 1.44 1.47 1.46 1.43 1.39 1.40 1.44 1.48 1.57 1.65 1.73 1.79 1.85 1.88
0.83 0.83 0.84 0.87 0.87 0.86 0.83 0.81 0.81 0.84 0.86 0.89 0.97 1.01 1.03 1.04 1.06 1.11 1.15 1.18 1.22 1.23 1.23 1.22 1.22 1.19 1.19 1.21 1.25 1.27 1.29 1.28 1.29 1.32 1.35 1.42 1.48 1.49 1.54 1.59 1.61 1.54 1.48 1.45 1.44 1.47 1.54 1.59 1.56 1.50 1.47 1.47 1.50 1.47 1.45 1.47 1.55 1.62 1.66 1.75 1.81 1.83 1.87
0.90 0.90 0.91 0.90 0.92 0.93 0.88 0.88 0.86 0.86 0.86 0.87 0.95 0.98 0.99 1.00 1.03 1.07 1.08 1.11 1.14 1.16 1.15 1.17 1.20 1.23 1.23 1.25 1.22 1.20 1.25 1.25 1.26 1.28 1.30 1.35 1.43 1.49 1.52 1.52 1.56 1.60 1.62 1.63 1.60 1.55 1.49 1.52 1.64 1.77 1.83 1.81 1.74 1.59 1.53 1.61 1.64 1.69 1.80 1.86 1.87 1.86 1.80
0.96 0.95 0.95 0.97 0.98 0.97 0.96 0.97 0.96 0.94 0.94 0.95 0.98 0.98 0.98 0.99 1.01 1.05 1.08 1.11 1.13 1.14 1.10 1.11 1.13 1.16 1.20 1.25 1.26 1.27 1.28 1.27 1.28 1.32 1.35 1.37 1.38 1.42 1.48 1.60 1.60 1.57 1.52 1.52 1.64 1.68 1.67 1.66 1.60 1.62 1.72 1.92 1.92 1.95 1.82 1.72 1.79 1.88 1.87 1.89 1.93 1.95 1.93
1.01 0.99 0.99 1.01 0.98 0.98 0.98 0.99 1.01 1.01 0.99 1.00 1.02 1.01 1.02 1.02 1.05 1.07 1.10 1.12 1.14 1.13 1.11 1.12 1.10 1.11 1.14 1.19 1.21 1.25 1.29 1.31 1.32 1.35 1.37 1.39 1.42 1.45 1.47 1.51 1.60 1.66 1.66 1.66 1.64 1.63 1.64 1.67 1.71 1.70 1.66 1.66 1.72 1.77 1.88 1.88 1.88 1.82 1.86 1.92 1.92 1.92 1.93
1.10 1.09 1.10 1.10 1.07 1.06 1.06 1.05 1.05 1.03 1.03 1.08 1.09 1.08 1.09 1.09 1.11 1.13 1.15 1.16 1.15 1.15 1.12 1.11 1.08 1.05 1.08 1.11 1.15 1.19 1.22 1.24 1.25 1.27 1.31 1.36 1.41 1.44 1.44 1.43 1.43 1.52 1.65 1.71 1.73 1.71 1.68 1.67 1.68 1.72 1.83 2.02 2.02 1.87 1.73 1.69 1.74 1.80 1.85 1.89 1.88 1.92 1.89

ECMWFFLT1_prec_pwat_033.txt.gz
Precipitable_Water
0.77 0.84 0.93 1.00 1.03 1.04 1.07 1.13 1.15 1.13 1.10 1.06 1.01 0.91 0.88 0.90 0.91 0.93 0.92 0.96 0.97 1.00 1.08 1.12 1.14 1.18 1.17 1.18 1.19 1.20 1.21 1.22 1.21 1.16 1.13 1.11 1.11 1.10 1.08 1.08 1.08 1.09 1.13 1.11 1.11 1.13 1.21 1.32 1.35 1.39 1.43 1.43 1.40 1.43 1.46 1.49 1.50 1.54 1.56 1.57 1.56 1.49 1.39
0.75 0.78 0.84 0.92 0.95 1.00 1.05 1.09 1.14 1.16 1.14 1.12 1.09 1.07 0.99 0.93 0.92 0.90 0.89 0.91 0.93 0.95 1.01 1.07 1.11 1.13 1.14 1.15 1.18 1.20 1.20 1.22 1.24 1.23 1.21 1.18 1.17 1.14 1.11 1.10 1.08 1.08 1.12 1.14 1.16 1.18 1.22 1.28 1.33 1.36 1.38 1.39 1.38 1.42 1.46 1.47 1.48 1.52 1.52 1.53 1.50 1.46 1.39
0.72 0.75 0.78 0.83 0.85 0.88 0.97 1.07 1.12 1.14 1.15 1.16 1.16 1.14 1.09 1.04 0.99 0.93 0.93 0.93 0.93 0.96 1.02 1.05 1.08 1.10 1.14 1.16 1.16 1.16 1.20 1.23 1.24 1.23 1.20 1.16 1.13 1.14 1.17 1.16 1.14 1.12 1.14 1.19 1.21 1.20 1.24 1.27 1.33 1.37 1.38 1.35 1.35 1.39 1.44 1.46 1.48 1.51 1.51 1.50 1.46 1.41 1.36
0.68 0.71 0.74 0.77 0.81 0.86 0.90 0.98 1.06 1.11 1.16 1.17 1.17 1.17 1.16 1.12 1.11 1.10 1.05 1.00 0.97 0.98 0.98 1.02 1.06 1.09 1.13 1.14 1.15 1.17 1.19 1.21 1.22 1.22 1.22 1.23 1.21 1.23 1.21 1.19 1.18 1.18 1.17 1.16 1.21 1.23 1.24 1.24 1.28 1.34 1.37 1.35 1.33 1.36 1.42 1.45 1.47 1.50 1.51 1.47 1.42 1.38 1.34
0.66 0.71 0.76 0.78 0.81 0.87 0.91 0.95 0.98 1.05 1.10 1.15 1.19 1.21 1.21 1.21 1.20 1.19 1.21 1.21 1.16 1.08 1.05 1.06 1.11 1.15 1.19 1.20 1.19 1.20 1.20 1.21 1.23 1.24 1.24 1.26 1.27 1.27 1.23 1.19 1.19 1.17 1.18 1.22 1.25 1.24 1.23 1.22 1.25 1.30 1.33 1.34 1.32 1.34 1.38 1.45 1.45 1.48 1.49 1.45 1.37 1.34 1.31
0.61 0.66 0.69 0.72 0.76 0.80 0.83 0.89 0.96 1.01 1.07 1.12 1.16 1.20 1.24 1.26 1.29 1.24 1.24 1.28 1.31 1.32 1.31 1.29 1.28 1.27 1.22 1.22 1.22 1.22 1.25 1.26 1.27 1.28 1.28 1.28 1.28 1.26 1.23 1.22 1.21 1.22 1.22 1.22 1.25 1.24 1.25 1.23 1.22 1.26 1.27 1.29 1.30 1.31 1.35 1.40 1.44 1.46 1.47 1.43 1.36 1.31 1.27
0.56 0.62 0.65 0.69 0.72 0.75 0.80 0.83 0.89 0.98 1.06 1.13 1.19 1.23 1.25 1.29 1.29 1.29 1.28 1.27 1.30 1.32 1.36 1.37 1.39 1.39 1.35 1.34 1.31 1.27 1.23 1.25 1.28 1.27 1.29 1.28 1.29 1.27 1.27 1.26 1.26 1.26 1.27 1.30 1.26 1.26 1.24 1.23 1.22 1.24 1.27 1.28 1.28 1.28 1.30 1.35 1.38 1.42 1.44 1.40 1.35 1.31 1.27
0.52 0.55 0.60 0.64 0.66 0.70 0.77 0.83 0.88 0.95 1.04 1.13 1.18 1.21 1.23 1.28 1.32 1.32 1.32 1.30 1.30 1.33 1.35 1.37 1.42 1.44 1.43 1.45 1.42 1.35 1.30 1.30 1.31 1.31 1.30 1.27 1.28 1.27 1.29 1.30 1.29 1.30 1.31 1.26 1.27 1.28 1.24 1.22 1.23 1.24 1.27 1.29 1.27 1.26 1.29 1.34 1.37 1.39 1.41 1.38 1.34 1.30 1.28
0.48 0.53 0.55 0.59 0.64 0.70 0.78 0.84 0.89 0.94 1.00 1.05 1.11 1.16 1.21 1.25 1.29 1.31 1.32 1.32 1.32 1.31 1.32 1.36 1.40 1.44 1.46 1.45 1.44 1.43 1.44 1.43 1.38 1.34 1.32 1.29 1.30 1.29 1.30 1.32 1.32 1.34 1.29 1.26 1.26 1.28 1.25 1.23 1.22 1.23 1.26 1.28 1.29 1.26 1.27 1.32 1.35 1.39 1.39 1.38 1.35 1.30 1.26
0.42 0.45 0.50 0.55 0.61 0.67 0.75 0.82 0.87 0.91 0.95 1.00 1.06 1.13 1.18 1.24 1.28 1.31 1.33 1.34 1.33 1.31 1.31 1.36 1.41 1.45 1.45 1.43 1.42 1.45 1.48 1.47 1.45 1.41 1.39 1.36 1.36 1.33 1.34 1.34 1.34 1.35 1.30 1.26 1.26 1.23 1.24 1.24 1.23 1.23 1.24 1.26 1.28 1.26 1.24 1.30 1.34 1.36 1.38 1.38 1.37 1.34 1.29
0.39 0.43 0.49 0.55 0.61 0.66 0.70 0.74 0.78 0.82 0.88 0.93 1.01 1.09 1.16 1.21 1.24 1.28 1.31 1.34 1.33 1.31 1.34 1.38 1.42 1.43 1.43 1.41 1.40 1.43 1.43 1.43 1.44 1.42 1.42 1.42 1.46 1.44 1.43 1.41 1.39 1.37 1.30 1.27 1.22 1.22 1.21 1.21 1.22 1.21 1.21 1.22 1.24 1.24 1.22 1.26 1.31 1.32 1.34 1.37 1.38 1.37 1.34
0.34 0.42 0.45 0.50 0.57 0.62 0.64 0.68 0.73 0.77 0.84 0.92 1.00 1.06 1.11 1.18 1.22 1.26 1.30 1.32 1.32 1.31 1.34 1.37 1.41 1.42 1.42 1.42 1.39 1.39 1.39 1.40 1.41 1.40 1.41 1.43 1.46 1.48 1.49 1.47 1.41 1.36 1.33 1.28 1.21 1.20 1.19 1.16 1.16 1.16 1.17 1.20 1.22 1.23 1.22 1.26 1.30 1.30 1.31 1.33 1.35 1.36 1.37
0.33 0.39 0.43 0.46 0.52 0.58 0.62 0.65 0.67 0.69 0.76 0.86 0.94 1.02 1.08 1.14 1.20 1.24 1.28 1.29 1.31 1.33 1.35 1.37 1.40 1.41 1.41 1.41 1.37 1.36 1.36 1.38 1.38 1.40 1.42 1.45 1.47 1.50 1.51 1.49 1.46 1.40 1.29 1.26 1.21 1.18 1.15 1.14 1.12 1.15 1.17 1.18 1.21 1.21 1.22 1.26 1.30 1.30 1.31 1.32 1.33 1.33 1.35
0.32 0.35 0.39 0.43 0.46 0.50 0.53 0.56 0.60 0.63 0.67 0.76 0.85 0.94 1.02 1.12 1.18 1.22 1.25 1.26 1.29 1.32 1.35 1.38 1.39 1.40 1.40 1.40 1.37 1.34 1.33 1.36 1.41 1.43 1.44 1.46 1.50 1.51 1.51 1.51 1.49 1.45 1.39 1.29 1.19 1.15 1.12 1.09 1.08 1.12 1.17 1.18 1.19 1.22 1.25 1.26 1.29 1.30 1.30 1.30 1.31 1.31 1.33
0.30 0.29 0.33 0.36 0.39 0.44 0.50 0.53 0.56 0.60 0.64 0.70 0.80 0.85 0.92 1.03 1.13 1.21 1.25 1.27 1.31 1.32 1.32 1.36 1.36 1.37 1.38 1.39 1.35 1.32 1.34 1.39 1.44 1.46 1.46 1.48 1.50 1.51 1.53 1.53 1.52 1.49 1.43 1.34 1.22 1.17 1.14 1.13 1.13 1.12 1.13 1.17 1.19 1.21 1.24 1.24 1.26 1.29 1.28 1.27 1.28 1.30 1.31
0.25 0.27 0.29 0.32 0.37 0.42 0.46 0.50 0.54 0.59 0.62 0.66 0.72 0.82 0.88 0.95 1.05 1.12 1.17 1.22 1.27 1.27 1.28 1.33 1.33 1.33 1.36 1.35 1.33 1.35 1.39 1.42 1.44 1.46 1.47 1.46 1.46 1.49 1.53 1.54 1.54 1.51 1.45 1.37 1.28 1.21 1.19 1.18 1.18 1.16 1.14 1.15 1.18 1.20 1.21 1.21 1.25 1.27 1.28 1.27 1.25 1.26 1.29
0.26 0.27 0.29 0.32 0.36 0.41 0.44 0.49 0.53 0.59 0.63 0.66 0.69 0.75 0.83 0.89 0.99 1.08 1.12 1.16 1.20 1.21 1.25 1.28 1.27 1.30 1.32 1.29 1.32 1.37 1.41 1.42 1.43 1.46 1.45 1.46 1.48 1.51 1.54 1.54 1.55 1.54 1.50 1.42 1.33 1.24 1.20 1.18 1.15 1.16 1.18 1.17 1.16 1.15 1.16 1.18 1.21 1.26 1.27 1.25 1.25 1.28 1.28
0.26 0.28 0.30 0.33 0.36 0.39 0.42 0.45 0.49 0.53 0.56 0.62 0.71 0.77 0.80 0.84 0.93 1.01 1.05 1.11 1.13 1.17 1.23 1.25 1.25 1.25 1.27 1.28 1.35 1.38 1.39 1.40 1.43 1.44 1.44 1.48 1.47 1.50 1.54 1.57 1.56 1.54 1.52 1.47 1.39 1.32 1.27 1.18 1.15 1.16 1.17 1.17 1.16 1.14 1.14 1.15 1.17 1.24 1.26 1.25 1.24 1.27 1.29
0.29 0.29 0.30 0.33 0.35 0.37 0.38 0.40 0.45 0.49 0.54 0.60 0.71 0.77 0.80 0.82 0.90 0.95 0.99 1.01 1.05 1.13 1.16 1.17 1.18 1.20 1.22 1.28 1.32 1.35 1.39 1.42 1.42 1.42 1.45 1.46 1.49 1.54 1.56 1.56 1.56 1.55 1.54 1.50 1.49 1.41 1.30 1.23 1.18 1.14 1.16 1.16 1.12 1.10 1.12 1.13 1.16 1.20 1.24 1.25 1.25 1.26 1.30
0.30 0.30 0.32 0.34 0.38 0.40 0.41 0.43 0.45 0.49 0.53 0.58 0.68 0.77 0.83 0.88 0.89 0.94 1.00 1.05 1.12 1.13 1.13 1.16 1.17 1.19 1.20 1.27 1.30 1.33 1.37 1.41 1.41 1.42 1.45 1.49 1.53 1.55 1.55 1.54 1.52 1.55 1.58 1.58 1.58 1.49 1.37 1.30 1.23 1.20 1.16 1.14 1.13 1.11 1.12 1.12 1.14 1.16 1.21 1.25 1.26 1.27 1.29
0.34 0.34 0.35 0.38 0.40 0.43 0.44 0.45 0.48 0.51 0.53 0.57 0.66 0.78 0.86 0.88 0.92 0.95 0.99 1.04 1.05 1.09 1.12 1.15 1.16 1.18 1.21 1.24 1.30 1.36 1.40 1.41 1.42 1.43 1.48 1.53 1.55 1.55 1.53 1.52 1.55 1.57 1.59 1.59 1.57 1.53 1.47 1.36 1.28 1.26 1.23 1.19 1.16 1.13 1.11 1.11 1.14 1.15 1.19 1.23 1.25 1.27 1.29
0.41 0.42 0.40 0.43 0.43 0.45 0.46 0.46 0.47 0.49 0.53 0.62 0.68 0.75 0.83 0.85 0.91 0.95 0.96 1.02 1.04 1.08 1.13 1.17 1.17 1.19 1.25 1.28 1.32 1.34 1.38 1.41 1.44 1.46 1.50 1.53 1.55 1.53 1.51 1.53 1.54 1.55 1.61 1.61 1.61 1.62 1.61 1.54 1.44 1.33 1.27 1.24 1.20 1.15 1.10 1.11 1.15 1.16 1.18 1.21 1.24 1.27 1.29
0.51 0.50 0.50 0.51 0.52 0.52 0.57 0.58 0.55 0.56 0.60 0.62 0.66 0.73 0.80 0.85 0.90 0.93 0.97 0.99 1.02 1.05 1.08 1.13 1.15 1.19 1.24 1.27 1.32 1.37 1.42 1.46 1.47 1.48 1.50 1.52 1.52 1.50 1.50 1.51 1.54 1.61 1.68 1.63 1.61 1.58 1.58 1.57 1.53 1.45 1.35 1.30 1.26 1.18 1.13 1.13 1.14 1.15 1.17 1.20 1.23 1.25 1.27
0.61 0.60 0.59 0.57 0.58 0.59 0.61 0.63 0.64 0.64 0.61 0.62 0.68 0.75 0.79 0.83 0.87 0.91 0.93 0.95 1.00 1.03 1.05 1.08 1.11 1.17 1.21 1.26 1.34 1.39 1.45 1.47 1.48 1.47 1.47 1.47 1.43 1.44 1.47 1.52 1.57 1.58 1.62 1.58 1.57 1.58 1.60 1.64 1.63 1.57 1.46 1.36 1.29 1.24 1.18 1.16 1.17 1.13 1.15 1.18 1.21 1.24 1.25
0.65 0.66 0.65 0.63 0.60 0.57 0.61 0.64 0.65 0.66 0.64 0.65 0.69 0.78 0.81 0.80 0.84 0.89 0.90 0.93 0.95 0.99 1.02 1.06 1.09 1.15 1.17 1.24 1.32 1.36 1.40 1.43 1.45 1.46 1.43 1.36 1.37 1.43 1.46 1.49 1.51 1.58 1.65 1.63 1.64 1.62 1.65 1.68 1.65 1.62 1.58 1.46 1.37 1.32 1.26 1.21 1.19 1.15 1.14 1.16 1.18 1.23 1.27
0.69 0.70 0.70 0.72 0.72 0.71 0.70 0.70 0.66 0.63 0.63 0.66 0.77 0.85 0.83 0.82 0.84 0.87 0.92 0.95 0.99 0.98 0.99 1.01 1.06 1.16 1.23 1.28 1.32 1.36 1.41 1.44 1.43 1.43 1.39 1.35 1.39 1.45 1.46 1.51 1.56 1.58 1.60 1.64 1.65 1.63 1.63 1.62 1.64 1.62 1.60 1.60 1.52 1.43 1.33 1.27 1.26 1.21 1.18 1.18 1.18 1.21 1.26
0.81 0.80 0.77 0.77 0.76 0.77 0.72 0.71 0.70 0.69 0.73 0.83 0.91 0.91 0.90 0.88 0.85 0.85 0.91 0.95 0.94 0.93 0.96 1.07 1.18 1.25 1.29 1.35 1.38 1.39 1.40 1.44 1.42 1.37 1.38 1.41 1.41 1.45 1.48 1.51 1.49 1.53 1.57 1.57 1.61 1.63 1.64 1.63 1.59 1.59 1.61 1.63 1.61 1.52 1.45 1.38 1.31 1.27 1.24 1.22 1.22 1.24 1.26
0.86 0.88 0.89 0.91 0.86 0.80 0.76 0.73 0.75 0.79 0.83 0.93 0.97 0.94 0.94 0.93 0.89 0.90 0.95 0.97 0.93 0.98 1.12 1.15 1.17 1.23 1.28 1.31 1.34 1.37 1.39 1.39 1.41 1.42 1.42 1.47 1.49 1.46 1.44 1.50 1.56 1.59 1.58 1.58 1.58 1.58 1.57 1.59 1.59 1.59 1.62 1.64 1.64 1.59 1.54 1.48 1.39 1.34 1.29 1.27 1.24 1.26 1.29
0.89 0.89 0.88 0.87 0.85 0.88 0.84 0.76 0.77 0.81 0.84 0.94 0.99 0.99 0.98 0.95 0.92 0.95 0.99 1.00 1.07 1.13 1.15 1.18 1.19 1.21 1.25 1.27 1.28 1.29 1.30 1.32 1.31 1.32 1.39 1.42 1.45 1.46 1.46 1.53 1.55 1.55 1.56 1.55 1.55 1.55 1.56 1.59 1.63 1.64 1.62 1.61 1.63 1.61 1.60 1.56 1.47 1.42 1.31 1.28 1.27 1.27 1.28
1.00 0.98 0.95 0.94 0.95 0.95 0.96 0.87 0.87 0.89 0.95 1.00 1.04 1.02 1.00 0.97 0.92 0.95 0.98 1.04 1.17 1.21 1.21 1.22 1.24 1.25 1.24 1.24 1.25 1.25 1.27 1.29 1.32 1.34 1.38 1.41 1.45 1.48 1.49 1.49 1.48 1.50 1.52 1.54 1.54 1.53 1.52 1.54 1.59 1.64 1.65 1.65 1.65 1.65 1.64 1.63 1.56 1.48 1.42 1.32 1.29 1.29 1.29
1.02 0.99 0.97 0.95 0.95 0.98 0.97 0.91 0.87 0.94 1.01 1.07 1.08 1.08 1.04 0.99 0.91 0.90 0.92 1.07 1.19 1.21 1.20 1.21 1.22 1.21 1.20 1.21 1.24 1.25 1.28 1.31 1.33 1.37 1.41 1.45 1.46 1.43 1.45 1.47 1.51 1.45 1.47 1.49 1.50 1.52 1.52 1.53 1.55 1.50 1.49 1.54 1.59 1.63 1.69 1.69 1.64 1.52 1.50 1.48 1.40 1.35 1.34
1.05 1.05 1.03 1.01 0.98 0.98 0.96 0.94 0.92 0.91 0.93 1.04 1.11 1.11 1.09 1.05 1.01 0.90 0.96 1.09 1.16 1.20 1.20 1.19 1.18 1.19 1.21 1.25 1.27 1.29 1.33 1.34 1.39 1.44 1.47 1.50 1.52 1.51 1.53 1.54 1.56 1.54 1.53 1.50 1.48 1.51 1.51 1.50 1.52 1.50 1.48 1.47 1.50 1.57 1.64 1.68 1.70 1.64 1.56 1.55 1.55 1.50 1.46
0.99 1.00 0.99 0.97 1.00 1.01 0.97 0.93 0.89 0.85 0.85 0.85 0.98 1.02 1.03 1.03 1.06 1.07 1.10 1.13 1.21 1.27 1.29 1.26 1.22 1.21 1.23 1.25 1.28 1.32 1.34 1.34 1.37 1.43 1.49 1.54 1.57 1.60 1.61 1.63 1.62 1.61 1.62 1.64 1.59 1.54 1.51 1.51 1.51 1.50 1.50 1.49 1.51 1.58 1.63 1.61 1.63 1.62 1.63 1.67 1.59 1.52 1.52
0.95 0.96 0.99 1.01 1.01 1.00 0.97 0.93 0.89 0.87 0.86 0.85 0.91 0.96 0.98 1.00 1.02 1.08 1.14 1.17 1.22 1.26 1.29 1.27 1.24 1.21 1.23 1.28 1.31 1.32 1.34 1.34 1.37 1.39 1.43 1.50 1.53 1.55 1.58 1.63 1.64 1.61 1.58 1.57 1.58 1.57 1.58 1.61 1.59 1.55 1.48 1.47 1.52 1.60 1.60 1.59 1.56 1.53 1.52 1.54 1.60 1.59 1.61
0.98 0.98 1.00 0.99 1.00 1.00 0.94 0.91 0.88 0.88 0.87 0.88 0.95 0.98 0.99 1.01 1.05 1.09 1.10 1.13 1.16 1.19 1.19 1.21 1.25 1.26 1.26 1.30 1.31 1.31 1.34 1.35 1.36 1.36 1.36 1.39 1.43 1.49 1.55 1.55 1.57 1.58 1.61 1.68 1.71 1.68 1.64 1.63 1.66 1.69 1.70 1.69 1.69 1.65 1.55 1.52 1.48 1.50 1.58 1.55 1.57 1.53 1.55
1.02 1.03 1.05 1.08 1.09 1.06 1.01 0.98 0.94 0.91 0.90 0.93 0.98 0.99 0.99 1.01 1.04 1.08 1.10 1.12 1.14 1.15 1.12 1.12 1.16 1.19 1.23 1.28 1.29 1.31 1.31 1.29 1.27 1.28 1.28 1.29 1.30 1.34 1.41 1.55 1.59 1.62 1.59 1.59 1.71 1.73 1.73 1.72 1.68 1.75 1.83 1.82 1.83 1.82 1.64 1.55 1.58 1.70 1.78 1.82 1.88 1.84 1.71
1.03 1.03 1.05 1.09 1.07 1.04 1.02 1.01 1.02 1.00 0.98 1.00 1.03 1.02 1.03 1.03 1.05 1.06 1.08 1.09 1.10 1.10 1.09 1.10 1.08 1.10 1.13 1.17 1.20 1.24 1.27 1.27 1.27 1.29 1.30 1.31 1.31 1.32 1.32 1.36 1.50 1.59 1.61 1.61 1.61 1.65 1.67 1.70 1.71 1.75 1.80 1.84 1.79 1.86 1.88 1.85 1.84 1.82 1.90 2.07 2.04 2.01 1.97
1.05 1.05 1.06 1.08 1.07 1.05 1.03 1.01 1.01 1.00 1.01 1.06 1.07 1.07 1.08 1.08 1.09 1.10 1.11 1.13 1.13 1.12 1.07 1.06 1.04 1.02 1.05 1.09 1.13 1.15 1.18 1.20 1.22 1.25 1.26 1.29 1.32 1.32 1.30 1.29 1.28 1.37 1.52 1.56 1.57 1.60 1.62 1.64 1.67 1.68 1.71 1.74 1.78 1.79 1.79 1.82 1.85 1.85 1.88 1.99 2.01 1.98 2.02

ECMWFFLT1_prec_pwat_036.txt.gz
Precipitable_Water
0.73 0.78 0.83 0.91 0.98 1.03 1.08 1.14 1.16 1.15 1.16 1.16 1.12 1.06 1.01 1.00 1.01 1.04 1.03 1.03 1.01 1.03 1.09 1.11 1.14 1.16 1.12 1.15 1.19 1.22 1.24 1.24 1.25 1.23 1.21 1.19 1.17 1.17 1.16 1.16 1.16 1.16 1.19 1.17 1.18 1.16 1.21 1.28 1.33 1.35 1.39 1.40 1.41 1.41 1.36 1.38 1.43 1.48 1.53 1.61 1.63 1.58 1.53
0.73 0.75 0.80 0.87 0.92 0.99 1.05 1.13 1.18 1.18 1.18 1.18 1.16 1.13 1.07 0.98 0.98 0.98 0.97 0.98 0.97 0.97 1.03 1.07 1.10 1.09 1.10 1.13 1.17 1.20 1.19 1.22 1.24 1.24 1.24 1.26 1.20 1.19 1.20 1.20 1.18 1.17 1.18 1.18 1.21 1.23 1.23 1.28 1.29 1.34 1.36 1.40 1.40 1.41 1.35 1.34 1.41 1.45 1.49 1.55 1.57 1.56 1.51
0.73 0.73 0.78 0.84 0.89 0.94 1.01 1.10 1.16 1.16 1.17 1.19 1.20 1.17 1.09 1.03 0.97 0.93 0.94 0.94 0.95 0.98 1.03 1.04 1.04 1.03 1.06 1.12 1.15 1.14 1.19 1.22 1.23 1.23 1.19 1.20 1.15 1.16 1.23 1.24 1.23 1.21 1.21 1.22 1.21 1.22 1.25 1.25 1.26 1.29 1.34 1.36 1.40 1.42 1.36 1.33 1.36 1.42 1.46 1.51 1.54 1.51 1.47
0.73 0.73 0.76 0.81 0.86 0.93 0.99 1.03 1.10 1.15 1.18 1.18 1.18 1.17 1.16 1.12 1.10 1.02 0.96 0.92 0.90 0.93 0.95 0.98 1.01 1.02 1.05 1.08 1.09 1.11 1.15 1.19 1.24 1.23 1.22 1.25 1.21 1.22 1.23 1.23 1.24 1.24 1.23 1.19 1.20 1.22 1.25 1.25 1.24 1.25 1.29 1.32 1.37 1.42 1.40 1.33 1.36 1.38 1.43 1.49 1.49 1.50 1.48
0.71 0.74 0.77 0.82 0.88 0.92 0.93 0.94 0.96 1.03 1.07 1.12 1.16 1.20 1.22 1.22 1.20 1.15 1.05 0.98 0.93 0.88 0.89 0.93 0.99 1.04 1.08 1.09 1.08 1.09 1.10 1.14 1.21 1.23 1.25 1.29 1.28 1.29 1.25 1.22 1.24 1.21 1.21 1.24 1.24 1.22 1.21 1.22 1.22 1.22 1.23 1.27 1.32 1.38 1.39 1.37 1.35 1.38 1.39 1.46 1.44 1.45 1.44
0.68 0.72 0.75 0.79 0.83 0.86 0.87 0.88 0.90 0.94 1.00 1.09 1.13 1.18 1.24 1.26 1.26 1.21 1.15 1.09 1.03 1.02 1.01 1.01 1.02 1.04 1.02 1.05 1.06 1.08 1.14 1.19 1.20 1.22 1.26 1.30 1.29 1.27 1.26 1.26 1.26 1.25 1.23 1.21 1.25 1.23 1.23 1.20 1.19 1.21 1.19 1.22 1.26 1.33 1.38 1.37 1.36 1.37 1.36 1.41 1.42 1.41 1.37
0.67 0.71 0.72 0.75 0.80 0.83 0.87 0.89 0.93 0.97 1.03 1.09 1.20 1.27 1.28 1.29 1.26 1.26 1.28 1.21 1.14 1.09 1.08 1.05 1.04 1.05 1.02 1.05 1.06 1.07 1.09 1.13 1.18 1.21 1.28 1.30 1.30 1.27 1.28 1.29 1.30 1.29 1.29 1.31 1.26 1.25 1.23 1.19 1.17 1.19 1.19 1.18 1.22 1.27 1.33 1.35 1.36 1.37 1.36 1.37 1.38 1.38 1.36
0.63 0.72 0.74 0.74 0.77 0.82 0.87 0.93 0.97 1.01 1.05 1.10 1.14 1.20 1.21 1.25 1.27 1.27 1.28 1.29 1.24 1.20 1.18 1.15 1.15 1.13 1.11 1.12 1.11 1.09 1.11 1.15 1.22 1.26 1.29 1.29 1.31 1.29 1.31 1.31 1.31 1.32 1.33 1.29 1.29 1.27 1.23 1.21 1.20 1.19 1.20 1.18 1.19 1.22 1.30 1.34 1.35 1.37 1.36 1.34 1.34 1.35 1.35
0.69 0.71 0.73 0.77 0.81 0.86 0.92 0.94 0.96 0.98 0.98 0.98 1.00 1.07 1.17 1.23 1.24 1.26 1.28 1.31 1.34 1.29 1.23 1.24 1.26 1.27 1.25 1.20 1.17 1.16 1.18 1.18 1.21 1.23 1.24 1.23 1.26 1.26 1.28 1.30 1.31 1.33 1.30 1.29 1.30 1.30 1.26 1.23 1.21 1.19 1.18 1.17 1.19 1.21 1.24 1.30 1.32 1.39 1.39 1.34 1.33 1.32 1.32
0.58 0.68 0.70 0.70 0.74 0.79 0.86 0.90 0.96 0.98 0.94 0.92 0.95 0.99 1.05 1.13 1.19 1.24 1.28 1.30 1.33 1.33 1.33 1.31 1.34 1.38 1.38 1.35 1.31 1.32 1.32 1.29 1.25 1.22 1.21 1.20 1.23 1.24 1.27 1.30 1.30 1.31 1.28 1.28 1.29 1.28 1.28 1.27 1.24 1.23 1.20 1.18 1.18 1.21 1.22 1.27 1.30 1.34 1.39 1.36 1.32 1.33 1.33
0.54 0.60 0.65 0.69 0.69 0.71 0.74 0.78 0.82 0.86 0.89 0.91 0.92 0.94 1.00 1.07 1.14 1.21 1.24 1.28 1.30 1.33 1.37 1.39 1.39 1.40 1.40 1.40 1.39 1.41 1.40 1.38 1.37 1.34 1.32 1.28 1.27 1.26 1.27 1.28 1.29 1.31 1.28 1.28 1.26 1.29 1.30 1.27 1.28 1.26 1.24 1.20 1.19 1.21 1.23 1.25 1.28 1.29 1.35 1.38 1.35 1.34 1.36
0.47 0.48 0.53 0.60 0.67 0.69 0.70 0.73 0.79 0.84 0.88 0.93 0.96 0.98 0.98 1.03 1.10 1.16 1.24 1.28 1.31 1.34 1.39 1.42 1.43 1.40 1.39 1.41 1.41 1.41 1.40 1.41 1.42 1.40 1.38 1.36 1.35 1.34 1.33 1.32 1.32 1.32 1.32 1.29 1.26 1.28 1.30 1.27 1.26 1.25 1.24 1.25 1.25 1.24 1.26 1.28 1.29 1.30 1.32 1.34 1.33 1.35 1.37
0.38 0.44 0.46 0.51 0.57 0.63 0.67 0.68 0.70 0.77 0.81 0.87 0.94 1.01 1.04 1.05 1.10 1.17 1.23 1.28 1.34 1.37 1.40 1.44 1.45 1.44 1.40 1.40 1.39 1.39 1.37 1.37 1.38 1.40 1.42 1.43 1.42 1.43 1.41 1.38 1.37 1.36 1.35 1.34 1.30 1.26 1.24 1.27 1.26 1.27 1.27 1.28 1.27 1.26 1.27 1.28 1.29 1.32 1.32 1.31 1.33 1.34 1.36
0.36 0.42 0.48 0.49 0.52 0.52 0.52 0.54 0.59 0.66 0.75 0.81 0.88 0.98 1.05 1.09 1.10 1.13 1.20 1.24 1.32 1.37 1.41 1.45 1.46 1.44 1.41 1.40 1.39 1.38 1.37 1.37 1.40 1.41 1.42 1.45 1.47 1.46 1.45 1.44 1.43 1.44 1.46 1.46 1.41 1.36 1.30 1.25 1.23 1.25 1.26 1.27 1.26 1.26 1.29 1.29 1.28 1.30 1.32 1.31 1.31 1.34 1.36
0.29 0.41 0.40 0.40 0.43 0.48 0.49 0.52 0.56 0.61 0.69 0.76 0.81 0.89 0.99 1.04 1.08 1.13 1.17 1.22 1.30 1.35 1.38 1.44 1.45 1.44 1.41 1.40 1.38 1.37 1.40 1.43 1.44 1.45 1.46 1.45 1.45 1.44 1.44 1.47 1.50 1.52 1.53 1.53 1.51 1.49 1.44 1.36 1.30 1.26 1.23 1.23 1.23 1.22 1.25 1.26 1.26 1.28 1.29 1.28 1.28 1.32 1.34
0.29 0.33 0.34 0.43 0.47 0.46 0.48 0.50 0.55 0.60 0.65 0.71 0.74 0.80 0.89 0.97 1.02 1.06 1.09 1.16 1.26 1.31 1.36 1.42 1.43 1.43 1.41 1.39 1.38 1.41 1.45 1.47 1.45 1.44 1.46 1.44 1.42 1.41 1.44 1.46 1.49 1.52 1.53 1.54 1.55 1.55 1.52 1.46 1.40 1.34 1.28 1.22 1.20 1.19 1.20 1.21 1.27 1.26 1.26 1.27 1.27 1.28 1.32
0.31 0.31 0.33 0.45 0.58 0.49 0.47 0.49 0.51 0.55 0.58 0.60 0.69 0.75 0.82 0.92 0.97 1.01 1.05 1.10 1.18 1.27 1.34 1.40 1.41 1.42 1.41 1.36 1.39 1.45 1.48 1.48 1.46 1.46 1.43 1.43 1.44 1.45 1.45 1.46 1.49 1.51 1.52 1.55 1.57 1.58 1.58 1.53 1.45 1.36 1.32 1.28 1.23 1.19 1.17 1.18 1.22 1.24 1.21 1.21 1.24 1.29 1.31
0.32 0.32 0.36 0.37 0.39 0.44 0.44 0.46 0.49 0.50 0.54 0.58 0.63 0.69 0.76 0.83 0.92 0.95 0.95 1.03 1.10 1.21 1.30 1.33 1.37 1.38 1.39 1.37 1.42 1.46 1.47 1.47 1.47 1.46 1.44 1.45 1.44 1.45 1.48 1.50 1.51 1.51 1.53 1.55 1.56 1.60 1.61 1.58 1.52 1.44 1.37 1.33 1.27 1.22 1.19 1.18 1.18 1.19 1.16 1.15 1.18 1.22 1.28
0.32 0.32 0.31 0.31 0.33 0.45 0.42 0.43 0.50 0.53 0.53 0.60 0.63 0.64 0.68 0.77 0.85 0.90 0.95 1.00 1.10 1.26 1.31 1.30 1.32 1.36 1.38 1.41 1.42 1.42 1.46 1.48 1.46 1.45 1.45 1.44 1.46 1.50 1.52 1.51 1.51 1.51 1.52 1.53 1.60 1.63 1.59 1.59 1.59 1.52 1.45 1.37 1.29 1.22 1.21 1.19 1.18 1.15 1.14 1.12 1.13 1.15 1.20
0.35 0.35 0.34 0.34 0.38 0.45 0.44 0.44 0.45 0.50 0.58 0.60 0.62 0.66 0.69 0.73 0.76 0.86 0.97 1.04 1.14 1.21 1.26 1.28 1.30 1.36 1.40 1.41 1.41 1.43 1.45 1.45 1.44 1.43 1.44 1.49 1.51 1.52 1.52 1.52 1.49 1.53 1.58 1.60 1.63 1.61 1.62 1.63 1.61 1.60 1.54 1.45 1.38 1.31 1.25 1.21 1.18 1.12 1.11 1.11 1.10 1.12 1.16
0.33 0.34 0.36 0.38 0.38 0.40 0.46 0.50 0.50 0.52 0.52 0.55 0.60 0.64 0.67 0.69 0.76 0.87 0.97 1.01 1.02 1.10 1.18 1.24 1.27 1.29 1.36 1.36 1.36 1.39 1.40 1.40 1.42 1.44 1.49 1.52 1.52 1.53 1.53 1.53 1.55 1.57 1.59 1.60 1.59 1.60 1.60 1.63 1.61 1.62 1.61 1.56 1.48 1.40 1.33 1.27 1.21 1.12 1.08 1.09 1.09 1.10 1.14
0.35 0.37 0.39 0.46 0.53 0.58 0.58 0.57 0.56 0.55 0.57 0.61 0.58 0.60 0.65 0.69 0.75 0.81 0.89 1.01 1.01 1.06 1.12 1.16 1.20 1.22 1.27 1.28 1.28 1.29 1.33 1.36 1.39 1.42 1.45 1.49 1.51 1.50 1.50 1.52 1.53 1.52 1.58 1.60 1.61 1.65 1.67 1.68 1.67 1.64 1.60 1.61 1.61 1.47 1.34 1.35 1.29 1.17 1.10 1.08 1.09 1.12 1.16
0.40 0.50 0.56 0.56 0.55 0.57 0.63 0.65 0.62 0.62 0.64 0.60 0.59 0.60 0.62 0.70 0.75 0.78 0.88 0.95 0.99 1.04 1.09 1.13 1.14 1.18 1.21 1.22 1.26 1.29 1.34 1.37 1.38 1.39 1.42 1.46 1.46 1.45 1.46 1.47 1.50 1.55 1.61 1.57 1.58 1.60 1.61 1.61 1.64 1.66 1.65 1.63 1.62 1.51 1.44 1.40 1.36 1.23 1.12 1.07 1.08 1.11 1.13
0.56 0.57 0.57 0.59 0.64 0.64 0.65 0.67 0.68 0.69 0.66 0.64 0.62 0.61 0.65 0.70 0.75 0.79 0.85 0.93 1.00 1.05 1.09 1.10 1.11 1.15 1.19 1.22 1.28 1.33 1.36 1.38 1.38 1.38 1.40 1.42 1.40 1.40 1.43 1.48 1.54 1.57 1.62 1.57 1.57 1.57 1.60 1.65 1.65 1.68 1.69 1.66 1.61 1.59 1.54 1.49 1.45 1.34 1.23 1.12 1.06 1.05 1.06
0.66 0.66 0.69 0.69 0.68 0.67 0.71 0.75 0.74 0.72 0.73 0.71 0.63 0.64 0.68 0.71 0.75 0.79 0.82 0.90 0.97 1.05 1.08 1.07 1.08 1.13 1.16 1.23 1.31 1.38 1.40 1.41 1.43 1.43 1.43 1.41 1.40 1.42 1.44 1.49 1.53 1.61 1.68 1.64 1.63 1.62 1.67 1.71 1.68 1.68 1.69 1.68 1.70 1.73 1.71 1.70 1.68 1.54 1.37 1.27 1.16 1.11 1.12
0.69 0.70 0.73 0.77 0.82 0.83 0.80 0.80 0.76 0.72 0.67 0.66 0.66 0.69 0.70 0.71 0.74 0.78 0.84 0.89 0.95 0.98 1.02 1.06 1.11 1.21 1.28 1.31 1.35 1.39 1.36 1.35 1.36 1.39 1.40 1.40 1.44 1.49 1.52 1.60 1.64 1.64 1.61 1.63 1.64 1.64 1.66 1.68 1.65 1.63 1.65 1.71 1.73 1.74 1.72 1.70 1.76 1.75 1.60 1.45 1.29 1.20 1.16
0.78 0.79 0.78 0.81 0.82 0.82 0.85 0.86 0.85 0.81 0.78 0.80 0.77 0.77 0.75 0.73 0.75 0.79 0.87 0.92 0.90 0.90 1.02 1.14 1.20 1.26 1.28 1.29 1.31 1.33 1.31 1.33 1.35 1.35 1.39 1.45 1.49 1.54 1.57 1.57 1.52 1.53 1.53 1.53 1.60 1.61 1.62 1.63 1.65 1.66 1.67 1.71 1.73 1.71 1.71 1.71 1.69 1.75 1.72 1.61 1.48 1.36 1.28
0.82 0.88 0.91 0.90 0.90 0.89 0.89 0.90 0.87 0.87 0.85 0.82 0.82 0.78 0.79 0.78 0.79 0.85 0.90 0.93 0.91 0.93 1.04 1.15 1.23 1.29 1.27 1.23 1.24 1.30 1.32 1.35 1.41 1.45 1.46 1.52 1.54 1.52 1.51 1.56 1.59 1.59 1.58 1.59 1.60 1.57 1.58 1.62 1.62 1.64 1.64 1.66 1.65 1.67 1.67 1.68 1.68 1.71 1.72 1.72 1.65 1.55 1.46
0.81 0.83 0.85 0.86 0.89 0.93 0.92 0.91 0.89 0.88 0.89 0.91 0.92 0.90 0.88 0.83 0.84 0.91 0.96 0.95 0.97 1.02 1.03 1.10 1.23 1.26 1.25 1.24 1.23 1.26 1.32 1.38 1.40 1.43 1.48 1.48 1.49 1.48 1.47 1.53 1.53 1.54 1.59 1.60 1.61 1.59 1.59 1.60 1.61 1.58 1.55 1.56 1.58 1.61 1.64 1.68 1.69 1.68 1.66 1.67 1.70 1.67 1.56
0.89 0.90 0.91 0.95 0.95 0.95 0.97 0.95 0.93 0.93 0.96 0.96 0.97 0.99 0.99 0.93 0.92 0.97 0.97 1.01 1.19 1.18 1.18 1.22 1.23 1.24 1.21 1.21 1.22 1.26 1.31 1.36 1.40 1.44 1.44 1.45 1.46 1.45 1.43 1.43 1.46 1.51 1.53 1.54 1.52 1.52 1.52 1.55 1.54 1.51 1.47 1.45 1.52 1.57 1.60 1.67 1.69 1.72 1.68 1.64 1.67 1.68 1.68
0.92 0.91 0.94 0.96 0.98 1.01 1.00 0.96 0.94 0.95 0.96 0.98 0.98 1.01 1.03 1.08 1.04 1.06 1.05 1.12 1.21 1.17 1.19 1.23 1.25 1.25 1.23 1.25 1.27 1.28 1.32 1.36 1.38 1.42 1.44 1.45 1.46 1.42 1.41 1.40 1.43 1.42 1.46 1.48 1.46 1.46 1.44 1.44 1.50 1.48 1.44 1.47 1.47 1.50 1.57 1.64 1.70 1.71 1.69 1.65 1.63 1.65 1.70
0.99 1.00 1.01 1.05 1.06 1.07 1.03 1.03 1.01 0.99 0.96 0.97 1.02 1.01 1.04 1.05 1.06 1.00 1.06 1.16 1.18 1.21 1.19 1.19 1.20 1.22 1.23 1.28 1.32 1.34 1.35 1.35 1.36 1.40 1.44 1.45 1.47 1.45 1.43 1.40 1.41 1.40 1.42 1.45 1.45 1.45 1.41 1.41 1.47 1.47 1.49 1.49 1.50 1.50 1.55 1.64 1.68 1.70 1.71 1.69 1.69 1.70 1.74
1.02 1.02 1.02 1.03 1.10 1.11 1.07 1.04 1.00 0.98 0.98 0.96 1.04 1.07 1.08 1.10 1.10 1.12 1.15 1.18 1.23 1.25 1.24 1.18 1.17 1.18 1.21 1.25 1.30 1.36 1.37 1.36 1.38 1.40 1.44 1.45 1.45 1.47 1.49 1.48 1.47 1.46 1.46 1.45 1.46 1.44 1.45 1.50 1.51 1.50 1.52 1.50 1.51 1.56 1.61 1.63 1.66 1.66 1.68 1.67 1.64 1.64 1.68
1.07 1.06 1.09 1.13 1.14 1.14 1.09 1.06 1.02 1.01 0.99 0.99 1.05 1.10 1.11 1.12 1.15 1.19 1.22 1.23 1.28 1.29 1.25 1.17 1.13 1.15 1.18 1.24 1.30 1.34 1.37 1.36 1.38 1.37 1.40 1.45 1.48 1.47 1.49 1.53 1.55 1.52 1.51 1.51 1.54 1.51 1.51 1.57 1.59 1.58 1.58 1.57 1.59 1.62 1.64 1.64 1.66 1.67 1.65 1.62 1.57 1.59 1.64
1.13 1.12 1.14 1.13 1.14 1.13 1.08 1.06 1.04 1.03 1.02 1.02 1.08 1.09 1.09 1.10 1.14 1.20 1.23 1.28 1.32 1.35 1.28 1.21 1.17 1.18 1.19 1.23 1.27 1.29 1.34 1.35 1.36 1.36 1.39 1.45 1.52 1.56 1.57 1.55 1.57 1.57 1.60 1.72 1.79 1.75 1.66 1.63 1.66 1.70 1.73 1.73 1.71 1.68 1.63 1.62 1.61 1.66 1.79 1.84 1.76 1.66 1.65
1.14 1.15 1.15 1.17 1.17 1.15 1.12 1.11 1.08 1.05 1.04 1.06 1.10 1.10 1.09 1.09 1.11 1.15 1.19 1.25 1.29 1.30 1.23 1.18 1.17 1.15 1.16 1.19 1.21 1.25 1.27 1.30 1.34 1.37 1.38 1.40 1.45 1.49 1.57 1.64 1.67 1.69 1.66 1.71 1.77 1.80 1.80 1.76 1.70 1.75 1.77 1.75 1.81 1.87 1.77 1.70 1.76 1.89 1.92 1.89 1.89 1.84 1.79
1.13 1.13 1.13 1.15 1.12 1.10 1.09 1.09 1.09 1.08 1.05 1.06 1.09 1.08 1.08 1.09 1.11 1.13 1.15 1.16 1.20 1.21 1.19 1.16 1.11 1.10 1.11 1.14 1.15 1.20 1.23 1.26 1.28 1.31 1.33 1.37 1.40 1.40 1.43 1.48 1.60 1.66 1.68 1.70 1.72 1.69 1.67 1.69 1.70 1.72 1.74 1.72 1.65 1.73 1.81 1.79 1.76 1.77 1.81 1.86 1.87 1.87 1.86
1.19 1.19 1.18 1.16 1.12 1.10 1.08 1.07 1.07 1.05 1.05 1.08 1.10 1.09 1.09 1.09 1.11 1.13 1.14 1.15 1.12 1.12 1.11 1.10 1.09 1.06 1.09 1.12 1.16 1.20 1.23 1.25 1.28 1.33 1.36 1.41 1.45 1.46 1.42 1.42 1.42 1.51 1.50 1.49 1.49 1.49 1.47 1.43 1.40 1.38 1.37 1.41 1.44 1.46 1.49 1.56 1.59 1.58 1.62 1.67 1.72 1.74 1.76

ECMWFFLT1_prec_pwat_042.txt.gz
Precipitable_Water
0.94 1.02 0.98 1.01 1.08 1.08 1.04 1.15 1.18 1.19 1.21 1.23 1.32 1.44 1.47 1.41 1.32 1.26 1.19 1.11 1.07 1.07 1.11 1.11 1.09 1.11 1.06 1.07 1.07 1.07 1.10 1.09 1.10 1.09 1.06 1.03 1.01 1.00 1.02 1.08 1.08 1.10 1.14 1.09 1.10 1.11 1.17 1.24 1.26 1.27 1.34 1.37 1.35 1.32 1.33 1.36 1.42 1.49 1.51 1.53 1.54 1.56 1.62
0.87 0.93 0.99 1.00 0.99 1.00 1.04 1.10 1.11 1.09 1.13 1.33 1.53 1.60 1.56 1.46 1.36 1.25 1.17 1.11 1.04 1.00 1.04 1.08 1.09 1.08 1.07 1.06 1.06 1.06 1.05 1.07 1.11 1.13 1.12 1.08 1.07 1.04 1.05 1.07 1.08 1.10 1.13 1.14 1.15 1.16 1.17 1.21 1.24 1.25 1.26 1.33 1.35 1.35 1.31 1.31 1.35 1.41 1.45 1.47 1.48 1.49 1.53
0.82 0.86 1.05 1.16 1.10 1.07 1.09 1.12 1.17 1.17 1.19 1.32 1.56 1.64 1.55 1.46 1.37 1.25 1.19 1.15 1.08 1.04 1.04 1.04 1.03 1.05 1.07 1.07 1.04 1.05 1.05 1.08 1.11 1.11 1.07 1.04 1.03 1.02 1.03 1.06 1.12 1.15 1.15 1.18 1.20 1.20 1.21 1.22 1.20 1.25 1.26 1.26 1.31 1.35 1.35 1.33 1.33 1.37 1.42 1.44 1.41 1.42 1.45
0.83 0.90 0.92 1.06 1.12 1.14 1.20 1.20 1.21 1.24 1.34 1.52 1.54 1.55 1.50 1.42 1.39 1.36 1.30 1.20 1.10 1.09 1.03 1.02 1.02 1.04 1.05 1.03 1.02 1.02 1.03 1.04 1.06 1.07 1.06 1.06 1.05 1.06 1.04 1.03 1.09 1.15 1.17 1.15 1.17 1.21 1.24 1.23 1.23 1.20 1.23 1.22 1.24 1.31 1.33 1.33 1.37 1.39 1.44 1.45 1.41 1.39 1.37
0.79 0.89 0.89 0.96 1.13 1.11 1.07 1.14 1.29 1.35 1.29 1.54 1.66 1.69 1.52 1.48 1.47 1.43 1.38 1.35 1.23 1.05 1.00 1.00 1.01 1.04 1.05 1.03 1.00 1.01 0.99 1.00 1.03 1.05 1.06 1.07 1.09 1.08 1.02 1.00 1.06 1.10 1.16 1.22 1.21 1.18 1.18 1.22 1.23 1.24 1.24 1.23 1.23 1.26 1.27 1.30 1.35 1.40 1.44 1.47 1.43 1.39 1.33
0.79 0.84 0.86 0.90 0.99 1.09 1.06 1.01 1.02 1.19 1.32 1.41 1.61 1.67 1.54 1.49 1.46 1.42 1.42 1.41 1.32 1.21 1.10 1.07 1.04 1.06 1.04 1.06 1.02 0.99 0.99 1.00 1.00 1.02 1.04 1.06 1.08 1.08 1.05 1.03 1.06 1.08 1.13 1.18 1.22 1.20 1.16 1.21 1.20 1.23 1.23 1.23 1.24 1.25 1.26 1.25 1.27 1.34 1.38 1.43 1.44 1.41 1.31
0.78 0.79 0.79 0.82 0.94 1.03 1.00 0.99 1.11 1.23 1.26 1.50 1.74 1.78 1.60 1.50 1.43 1.41 1.45 1.44 1.38 1.23 1.13 1.07 1.05 1.05 1.02 1.05 1.01 0.97 0.95 0.97 0.99 0.99 1.05 1.09 1.10 1.07 1.07 1.07 1.10 1.12 1.14 1.20 1.21 1.24 1.19 1.15 1.17 1.21 1.24 1.24 1.24 1.24 1.25 1.22 1.19 1.25 1.28 1.30 1.35 1.41 1.37
0.70 0.65 0.70 0.76 0.94 1.02 1.03 1.00 1.10 1.22 1.22 1.37 1.66 1.70 1.59 1.48 1.44 1.42 1.42 1.44 1.43 1.36 1.23 1.07 1.03 1.00 0.97 1.02 0.99 0.97 0.95 0.96 0.97 0.98 1.03 1.03 1.05 1.04 1.04 1.12 1.12 1.13 1.19 1.18 1.21 1.25 1.22 1.16 1.16 1.22 1.27 1.26 1.25 1.27 1.29 1.28 1.25 1.24 1.23 1.20 1.23 1.27 1.38
0.66 0.66 0.66 0.70 0.87 0.92 0.97 0.98 0.99 0.98 1.00 1.10 1.37 1.61 1.62 1.51 1.42 1.38 1.41 1.47 1.47 1.42 1.33 1.22 1.10 1.04 1.00 0.97 0.96 0.95 0.96 0.96 0.95 0.96 0.99 0.98 1.01 1.01 1.01 1.08 1.13 1.15 1.16 1.17 1.22 1.26 1.27 1.25 1.19 1.19 1.26 1.27 1.31 1.29 1.27 1.29 1.27 1.26 1.24 1.19 1.16 1.17 1.23
0.61 0.66 0.67 0.73 0.91 1.01 1.00 0.98 0.99 1.02 1.07 1.12 1.30 1.51 1.54 1.45 1.43 1.44 1.45 1.46 1.48 1.45 1.44 1.37 1.27 1.16 1.06 1.00 0.96 0.93 0.94 0.93 0.95 0.96 0.95 0.96 0.99 0.98 0.99 1.05 1.09 1.17 1.19 1.21 1.27 1.28 1.28 1.32 1.30 1.26 1.25 1.25 1.30 1.32 1.27 1.26 1.26 1.24 1.23 1.23 1.19 1.13 1.14
0.64 0.69 0.72 0.73 0.84 0.97 1.04 1.12 1.13 1.16 1.21 1.30 1.44 1.49 1.48 1.44 1.42 1.40 1.39 1.42 1.44 1.46 1.52 1.50 1.42 1.30 1.18 1.09 1.03 0.99 0.96 0.96 0.99 0.98 0.97 0.98 0.99 1.02 1.03 1.07 1.17 1.22 1.19 1.21 1.22 1.29 1.31 1.31 1.35 1.32 1.26 1.23 1.25 1.28 1.27 1.24 1.24 1.23 1.22 1.24 1.24 1.19 1.14
0.64 0.65 0.67 0.72 0.84 0.93 1.00 0.99 0.95 1.06 1.19 1.30 1.38 1.43 1.43 1.44 1.41 1.40 1.40 1.42 1.46 1.49 1.52 1.52 1.50 1.42 1.31 1.19 1.12 1.07 1.05 1.04 1.03 1.02 1.03 1.01 0.99 1.03 1.05 1.12 1.17 1.21 1.21 1.24 1.20 1.22 1.29 1.30 1.29 1.30 1.25 1.21 1.21 1.24 1.27 1.27 1.26 1.23 1.21 1.22 1.25 1.24 1.20
0.75 0.76 0.75 0.76 0.81 0.79 0.83 0.89 0.99 1.00 1.05 1.16 1.26 1.34 1.39 1.41 1.41 1.38 1.38 1.39 1.45 1.51 1.50 1.51 1.49 1.48 1.44 1.32 1.17 1.11 1.11 1.10 1.05 1.09 1.07 1.04 1.04 1.08 1.10 1.16 1.16 1.18 1.21 1.23 1.26 1.22 1.19 1.31 1.25 1.26 1.27 1.25 1.24 1.23 1.25 1.26 1.26 1.26 1.25 1.24 1.26 1.27 1.23
0.74 0.83 0.87 0.88 0.93 0.98 0.93 0.96 1.07 1.13 1.20 1.27 1.31 1.32 1.35 1.43 1.42 1.39 1.38 1.38 1.42 1.48 1.51 1.52 1.48 1.45 1.47 1.48 1.32 1.18 1.15 1.18 1.14 1.11 1.12 1.09 1.07 1.10 1.12 1.15 1.14 1.17 1.25 1.33 1.28 1.24 1.20 1.22 1.30 1.29 1.27 1.29 1.27 1.27 1.29 1.28 1.26 1.27 1.27 1.26 1.26 1.29 1.26
0.72 0.83 0.86 0.92 0.97 0.94 0.89 1.02 1.22 1.37 1.39 1.30 1.27 1.26 1.29 1.35 1.40 1.40 1.42 1.45 1.46 1.46 1.48 1.51 1.50 1.45 1.43 1.46 1.44 1.36 1.28 1.25 1.24 1.18 1.14 1.12 1.12 1.10 1.10 1.13 1.15 1.18 1.21 1.30 1.34 1.31 1.31 1.28 1.29 1.41 1.36 1.34 1.34 1.32 1.32 1.28 1.26 1.25 1.25 1.24 1.24 1.26 1.26
0.64 0.70 0.71 0.69 0.77 0.89 0.74 0.94 1.27 1.27 1.27 1.29 1.27 1.27 1.26 1.30 1.34 1.35 1.35 1.38 1.43 1.44 1.48 1.51 1.48 1.45 1.42 1.42 1.43 1.49 1.48 1.38 1.33 1.27 1.20 1.15 1.14 1.13 1.12 1.12 1.16 1.19 1.22 1.26 1.35 1.39 1.40 1.38 1.32 1.35 1.43 1.41 1.41 1.41 1.38 1.33 1.29 1.24 1.21 1.21 1.20 1.20 1.21
0.66 0.62 0.59 0.53 0.56 0.61 0.83 0.92 0.94 1.00 1.06 1.15 1.21 1.25 1.27 1.27 1.30 1.35 1.37 1.37 1.39 1.42 1.47 1.50 1.47 1.44 1.40 1.40 1.49 1.53 1.55 1.53 1.46 1.40 1.31 1.23 1.18 1.20 1.20 1.17 1.19 1.22 1.26 1.29 1.35 1.41 1.46 1.49 1.45 1.39 1.45 1.50 1.47 1.46 1.45 1.41 1.36 1.30 1.24 1.19 1.17 1.17 1.15
0.50 0.69 0.72 0.65 0.57 0.59 0.67 0.69 0.72 0.80 0.85 0.89 0.96 1.10 1.17 1.21 1.21 1.26 1.28 1.34 1.36 1.42 1.47 1.45 1.45 1.42 1.43 1.46 1.55 1.57 1.54 1.54 1.55 1.53 1.46 1.39 1.30 1.26 1.27 1.27 1.26 1.27 1.30 1.34 1.38 1.44 1.51 1.51 1.51 1.50 1.45 1.50 1.56 1.56 1.54 1.53 1.51 1.44 1.35 1.27 1.20 1.17 1.14
0.48 0.52 0.61 0.85 1.02 1.17 1.05 0.79 0.68 0.93 0.89 0.88 0.85 0.87 1.00 1.09 1.13 1.12 1.17 1.26 1.33 1.39 1.40 1.37 1.41 1.46 1.47 1.51 1.52 1.55 1.58 1.58 1.57 1.55 1.54 1.50 1.43 1.38 1.36 1.34 1.31 1.30 1.32 1.34 1.40 1.47 1.45 1.45 1.48 1.47 1.48 1.46 1.51 1.55 1.61 1.63 1.66 1.62 1.58 1.52 1.43 1.32 1.24
0.49 0.52 0.56 0.59 0.62 0.66 0.69 0.77 1.29 1.28 1.23 1.24 1.08 0.96 0.94 0.95 1.05 1.07 1.10 1.18 1.27 1.28 1.30 1.33 1.35 1.42 1.43 1.46 1.49 1.54 1.58 1.61 1.61 1.58 1.58 1.58 1.54 1.48 1.43 1.39 1.34 1.32 1.35 1.38 1.42 1.40 1.38 1.41 1.42 1.43 1.45 1.44 1.45 1.52 1.58 1.64 1.71 1.70 1.68 1.65 1.61 1.56 1.49
0.47 0.53 0.59 0.63 0.62 0.71 0.82 0.77 0.86 0.97 0.91 0.75 0.85 1.17 1.10 1.03 1.00 1.08 1.09 1.08 1.15 1.20 1.26 1.29 1.29 1.33 1.41 1.40 1.45 1.52 1.55 1.56 1.61 1.62 1.64 1.66 1.63 1.54 1.46 1.41 1.38 1.38 1.40 1.40 1.38 1.34 1.34 1.35 1.37 1.41 1.43 1.44 1.45 1.48 1.54 1.59 1.67 1.71 1.72 1.70 1.69 1.68 1.65
0.53 0.53 0.55 0.58 0.79 0.94 0.99 0.89 0.88 1.00 1.07 1.02 0.74 0.89 1.13 1.12 1.04 1.01 0.98 1.03 1.01 1.08 1.14 1.24 1.26 1.28 1.37 1.37 1.40 1.44 1.50 1.55 1.57 1.62 1.65 1.67 1.66 1.59 1.49 1.44 1.41 1.38 1.40 1.40 1.42 1.44 1.43 1.44 1.43 1.42 1.45 1.49 1.50 1.47 1.47 1.58 1.66 1.67 1.70 1.72 1.74 1.74 1.72
0.73 0.51 0.49 0.66 1.01 0.98 0.94 0.97 0.89 0.86 0.83 0.76 0.69 0.77 0.76 0.90 1.10 1.01 0.99 0.96 0.97 0.98 1.03 1.10 1.18 1.19 1.23 1.30 1.34 1.40 1.48 1.56 1.59 1.58 1.59 1.61 1.61 1.57 1.51 1.46 1.46 1.47 1.50 1.43 1.41 1.42 1.43 1.44 1.46 1.50 1.52 1.54 1.56 1.52 1.48 1.53 1.64 1.69 1.71 1.73 1.75 1.78 1.76
0.87 0.99 1.03 1.01 1.04 1.03 1.01 0.95 0.97 0.95 0.96 0.94 0.87 0.79 0.80 0.77 0.83 1.02 1.00 0.94 0.95 0.94 0.94 0.98 1.05 1.15 1.19 1.25 1.32 1.38 1.46 1.55 1.60 1.60 1.60 1.61 1.57 1.57 1.57 1.58 1.59 1.57 1.59 1.49 1.45 1.45 1.48 1.53 1.56 1.58 1.58 1.56 1.55 1.55 1.51 1.53 1.62 1.66 1.70 1.75 1.78 1.78 1.75
1.03 1.13 1.10 1.15 1.07 0.98 0.88 0.82 0.78 0.74 0.71 0.69 0.64 0.77 0.86 0.80 0.77 0.81 0.91 0.93 0.92 0.91 0.89 0.89 0.97 1.10 1.16 1.23 1.34 1.39 1.47 1.55 1.59 1.59 1.58 1.56 1.58 1.64 1.62 1.61 1.59 1.63 1.67 1.60 1.55 1.52 1.56 1.60 1.59 1.60 1.63 1.63 1.61 1.63 1.61 1.60 1.66 1.67 1.68 1.74 1.79 1.82 1.84
1.02 1.08 1.15 1.21 1.06 0.92 0.83 0.78 0.87 0.97 0.99 1.06 1.12 1.09 0.98 0.86 0.78 0.75 0.82 0.89 0.88 0.88 0.86 0.86 0.94 1.08 1.19 1.25 1.34 1.41 1.47 1.53 1.56 1.57 1.57 1.57 1.61 1.66 1.64 1.65 1.65 1.64 1.64 1.63 1.60 1.56 1.57 1.61 1.62 1.62 1.66 1.71 1.71 1.68 1.67 1.67 1.72 1.74 1.73 1.73 1.75 1.79 1.84
1.05 1.07 1.05 1.09 1.00 0.99 0.87 0.79 0.96 0.90 0.91 1.00 0.99 1.02 0.99 1.02 0.92 0.78 0.72 0.83 0.86 0.80 0.83 0.94 1.01 1.09 1.16 1.22 1.29 1.36 1.44 1.52 1.57 1.58 1.63 1.67 1.67 1.69 1.68 1.66 1.63 1.65 1.66 1.64 1.64 1.62 1.59 1.60 1.63 1.65 1.69 1.77 1.81 1.78 1.76 1.77 1.77 1.80 1.78 1.75 1.76 1.79 1.82
1.07 1.05 1.06 0.96 1.00 1.00 0.87 0.87 0.98 1.02 1.10 1.09 1.05 1.08 1.08 0.99 0.82 0.82 0.80 0.78 0.82 0.87 0.91 1.02 1.06 1.12 1.18 1.21 1.24 1.33 1.43 1.51 1.61 1.69 1.71 1.76 1.76 1.71 1.67 1.70 1.71 1.69 1.69 1.71 1.66 1.61 1.60 1.62 1.63 1.64 1.68 1.74 1.78 1.81 1.82 1.86 1.85 1.82 1.79 1.77 1.78 1.81 1.84
1.03 0.98 0.91 0.93 1.07 1.04 0.90 0.89 0.98 1.03 1.04 1.00 1.01 0.99 1.07 1.04 1.01 0.87 0.83 0.79 0.85 0.98 0.99 1.05 1.10 1.14 1.18 1.22 1.24 1.31 1.41 1.51 1.59 1.67 1.76 1.77 1.78 1.72 1.65 1.68 1.69 1.71 1.72 1.69 1.66 1.63 1.60 1.61 1.62 1.62 1.62 1.66 1.71 1.75 1.77 1.80 1.81 1.79 1.76 1.78 1.81 1.83 1.86
1.00 0.98 0.94 1.03 1.09 1.05 0.94 0.94 1.04 1.03 1.04 1.04 1.02 0.99 0.95 1.07 0.99 0.95 0.88 0.87 0.97 1.01 1.04 1.05 1.16 1.16 1.17 1.21 1.24 1.32 1.43 1.51 1.59 1.69 1.76 1.79 1.77 1.71 1.68 1.67 1.69 1.71 1.70 1.69 1.65 1.61 1.60 1.61 1.64 1.63 1.60 1.58 1.61 1.68 1.73 1.80 1.86 1.86 1.81 1.78 1.80 1.83 1.86
0.98 1.00 1.00 1.00 1.06 1.05 1.00 0.96 1.00 0.99 0.98 1.02 1.08 1.09 1.07 1.13 1.13 1.01 0.98 1.08 1.10 1.05 1.05 1.08 1.14 1.16 1.19 1.23 1.29 1.32 1.44 1.56 1.62 1.69 1.74 1.78 1.78 1.71 1.70 1.71 1.73 1.67 1.69 1.68 1.64 1.60 1.56 1.59 1.62 1.61 1.61 1.61 1.61 1.67 1.74 1.79 1.84 1.85 1.83 1.82 1.80 1.79 1.79
0.98 1.02 1.02 1.02 1.04 1.03 1.01 1.06 1.08 1.04 0.98 1.05 1.14 1.15 1.17 1.23 1.29 1.18 1.15 1.27 1.27 1.17 1.18 1.13 1.15 1.18 1.21 1.28 1.35 1.39 1.45 1.52 1.62 1.70 1.74 1.77 1.77 1.78 1.78 1.74 1.73 1.68 1.69 1.68 1.65 1.63 1.59 1.59 1.63 1.63 1.65 1.65 1.68 1.69 1.74 1.79 1.79 1.82 1.88 1.86 1.83 1.79 1.77
0.99 1.03 1.04 1.04 1.08 1.09 1.08 1.06 1.03 1.00 1.04 1.08 1.12 1.17 1.18 1.24 1.29 1.30 1.34 1.31 1.31 1.31 1.27 1.25 1.24 1.25 1.26 1.32 1.41 1.50 1.52 1.51 1.55 1.61 1.68 1.71 1.71 1.75 1.77 1.76 1.74 1.72 1.71 1.70 1.67 1.66 1.65 1.64 1.65 1.66 1.67 1.68 1.72 1.75 1.77 1.81 1.82 1.84 1.90 1.85 1.74 1.71 1.71
1.02 1.05 1.10 1.14 1.15 1.14 1.16 1.15 1.10 1.10 1.09 1.07 1.12 1.18 1.19 1.19 1.21 1.26 1.33 1.36 1.42 1.39 1.35 1.30 1.31 1.32 1.35 1.39 1.45 1.46 1.50 1.52 1.55 1.59 1.59 1.63 1.63 1.62 1.65 1.69 1.72 1.69 1.68 1.69 1.69 1.65 1.65 1.67 1.67 1.67 1.68 1.67 1.70 1.72 1.72 1.73 1.81 1.75 1.73 1.74 1.74 1.78 1.77
1.06 1.08 1.10 1.09 1.13 1.14 1.13 1.15 1.16 1.14 1.10 1.10 1.16 1.19 1.20 1.21 1.22 1.26 1.32 1.37 1.44 1.48 1.39 1.31 1.34 1.38 1.39 1.42 1.41 1.46 1.51 1.56 1.59 1.62 1.65 1.68 1.72 1.74 1.73 1.70 1.68 1.71 1.74 1.81 1.84 1.80 1.76 1.73 1.78 1.82 1.84 1.85 1.81 1.76 1.77 1.75 1.67 1.67 1.70 1.73 1.69 1.66 1.67
1.06 1.09 1.11 1.15 1.15 1.16 1.19 1.20 1.19 1.19 1.17 1.16 1.20 1.22 1.22 1.22 1.24 1.27 1.33 1.38 1.45 1.53 1.48 1.41 1.36 1.34 1.35 1.37 1.41 1.49 1.51 1.55 1.58 1.59 1.66 1.68 1.67 1.65 1.70 1.81 1.83 1.81 1.72 1.73 1.78 1.82 1.85 1.86 1.80 1.85 1.87 1.78 1.73 1.75 1.70 1.68 1.71 1.75 1.72 1.70 1.69 1.67 1.65
1.06 1.11 1.15 1.19 1.17 1.18 1.19 1.21 1.23 1.24 1.21 1.20 1.24 1.25 1.23 1.23 1.24 1.27 1.34 1.40 1.49 1.53 1.52 1.50 1.45 1.47 1.47 1.52 1.54 1.58 1.54 1.54 1.55 1.58 1.68 1.78 1.75 1.67 1.63 1.58 1.68 1.74 1.76 1.75 1.75 1.78 1.78 1.78 1.78 1.80 1.82 1.80 1.75 1.71 1.70 1.68 1.67 1.66 1.64 1.62 1.60 1.60 1.58
1.15 1.16 1.17 1.18 1.18 1.19 1.19 1.20 1.21 1.22 1.24 1.28 1.29 1.27 1.26 1.25 1.26 1.29 1.34 1.38 1.43 1.52 1.52 1.50 1.48 1.43 1.46 1.50 1.53 1.56 1.59 1.61 1.63 1.62 1.69 1.74 1.71 1.63 1.53 1.48 1.45 1.48 1.57 1.61 1.66 1.70 1.70 1.68 1.68 1.67 1.68 1.67 1.64 1.59 1.57 1.55 1.54 1.54 1.53 1.52 1.51 1.48 1.46

ECMWFFLT1_prec_pwat_045.txt.gz
Precipitable_Water
0.97 1.01 1.05 1.09 1.12 1.17 1.18 1.15 1.17 1.20 1.24 1.31 1.36 1.38 1.42 1.43 1.39 1.34 1.29 1.28 1.24 1.18 1.19 1.21 1.19 1.15 1.08 1.06 1.07 1.08 1.07 1.03 1.02 0.99 0.99 0.97 0.98 1.01 1.00 1.03 1.01 1.04 1.09 1.08 1.08 1.09 1.13 1.21 1.22 1.23 1.28 1.32 1.35 1.36 1.34 1.33 1.33 1.38 1.44 1.48 1.51 1.58 1.58
0.91 0.96 1.01 1.03 1.07 1.14 1.18 1.16 1.18 1.21 1.24 1.29 1.32 1.34 1.36 1.37 1.36 1.31 1.28 1.26 1.25 1.19 1.16 1.17 1.18 1.15 1.08 1.04 1.05 1.06 1.04 1.03 1.02 1.00 0.99 0.99 1.01 1.03 1.05 1.03 1.01 1.00 1.06 1.09 1.13 1.16 1.19 1.20 1.19 1.19 1.21 1.28 1.31 1.37 1.39 1.37 1.34 1.34 1.36 1.42 1.45 1.49 1.54
0.89 0.93 0.96 0.97 1.02 1.08 1.15 1.16 1.18 1.19 1.21 1.26 1.29 1.30 1.27 1.28 1.27 1.25 1.27 1.29 1.27 1.26 1.24 1.19 1.17 1.14 1.08 1.05 1.02 1.01 1.01 1.01 1.01 1.00 0.96 0.94 0.94 0.97 1.04 1.04 1.03 1.00 1.03 1.11 1.14 1.18 1.22 1.21 1.20 1.19 1.20 1.22 1.27 1.32 1.36 1.36 1.34 1.34 1.34 1.37 1.40 1.42 1.45
0.82 0.90 0.94 0.97 1.03 1.09 1.11 1.12 1.13 1.15 1.19 1.22 1.23 1.22 1.21 1.23 1.30 1.34 1.36 1.34 1.30 1.27 1.22 1.21 1.20 1.17 1.14 1.05 0.99 0.97 0.98 0.99 0.99 0.98 0.97 0.96 0.93 0.95 0.99 1.03 1.04 1.05 1.05 1.06 1.13 1.17 1.21 1.23 1.22 1.20 1.21 1.20 1.21 1.26 1.31 1.32 1.33 1.33 1.32 1.32 1.32 1.37 1.42
0.83 0.91 0.95 0.99 1.06 1.12 1.10 1.11 1.11 1.12 1.15 1.21 1.24 1.24 1.23 1.28 1.34 1.38 1.40 1.42 1.38 1.28 1.23 1.23 1.23 1.22 1.20 1.15 1.05 0.99 0.96 0.95 0.97 0.98 0.98 0.98 0.98 0.98 0.95 0.95 1.01 1.02 1.02 1.06 1.14 1.18 1.19 1.21 1.21 1.21 1.19 1.20 1.20 1.23 1.24 1.29 1.30 1.32 1.31 1.30 1.26 1.31 1.34
0.83 0.88 0.92 0.93 1.00 1.06 1.07 1.09 1.11 1.13 1.14 1.18 1.23 1.27 1.29 1.31 1.32 1.32 1.36 1.39 1.37 1.36 1.35 1.35 1.32 1.28 1.22 1.21 1.15 1.06 1.01 0.98 0.97 0.96 0.97 0.98 0.98 0.97 0.94 0.93 0.95 1.00 1.03 1.04 1.11 1.16 1.20 1.20 1.18 1.19 1.17 1.19 1.21 1.22 1.23 1.23 1.24 1.26 1.26 1.29 1.27 1.29 1.32
0.79 0.82 0.84 0.85 0.91 0.99 1.03 1.08 1.12 1.13 1.15 1.19 1.24 1.27 1.28 1.27 1.27 1.30 1.36 1.35 1.35 1.30 1.32 1.33 1.34 1.32 1.24 1.23 1.18 1.12 1.04 0.99 0.99 0.98 0.99 0.99 0.99 0.96 0.95 0.95 0.96 0.99 1.03 1.10 1.10 1.15 1.18 1.18 1.18 1.19 1.19 1.19 1.20 1.20 1.21 1.20 1.20 1.23 1.22 1.22 1.22 1.27 1.29
0.75 0.78 0.77 0.79 0.90 0.97 1.04 1.10 1.14 1.15 1.15 1.17 1.19 1.23 1.24 1.24 1.28 1.32 1.32 1.30 1.27 1.28 1.29 1.30 1.33 1.32 1.27 1.25 1.20 1.13 1.08 1.06 1.05 1.02 1.02 1.00 0.99 0.96 0.96 0.97 0.97 0.99 1.05 1.06 1.10 1.12 1.12 1.16 1.20 1.21 1.21 1.20 1.19 1.20 1.21 1.21 1.21 1.24 1.23 1.17 1.15 1.17 1.23
0.72 0.79 0.76 0.76 0.82 0.91 1.02 1.11 1.13 1.14 1.13 1.10 1.13 1.23 1.30 1.31 1.31 1.29 1.30 1.28 1.26 1.23 1.25 1.30 1.31 1.33 1.30 1.24 1.19 1.15 1.11 1.08 1.06 1.05 1.03 1.01 1.00 0.97 0.98 1.00 1.00 1.02 1.01 1.02 1.07 1.14 1.14 1.14 1.20 1.23 1.24 1.22 1.22 1.21 1.21 1.20 1.20 1.23 1.21 1.18 1.15 1.12 1.13
0.70 0.76 0.80 0.78 0.81 0.88 1.00 1.10 1.13 1.13 1.13 1.15 1.16 1.22 1.32 1.35 1.34 1.35 1.35 1.32 1.29 1.26 1.30 1.34 1.34 1.32 1.28 1.22 1.18 1.16 1.13 1.09 1.06 1.04 1.03 1.00 1.00 0.98 0.99 1.02 1.02 1.04 1.04 1.05 1.09 1.14 1.20 1.21 1.21 1.24 1.25 1.22 1.22 1.21 1.19 1.19 1.18 1.18 1.19 1.16 1.15 1.12 1.10
0.65 0.72 0.80 0.80 0.82 0.87 0.97 1.01 1.03 1.07 1.11 1.13 1.18 1.26 1.31 1.32 1.35 1.35 1.34 1.34 1.33 1.34 1.43 1.48 1.49 1.41 1.31 1.22 1.14 1.12 1.10 1.07 1.06 1.02 1.00 0.99 1.00 0.99 1.02 1.05 1.06 1.09 1.07 1.09 1.12 1.15 1.20 1.24 1.26 1.24 1.25 1.22 1.18 1.17 1.16 1.17 1.17 1.16 1.16 1.16 1.16 1.14 1.12
0.58 0.64 0.73 0.78 0.81 0.85 0.88 0.90 0.95 1.02 1.09 1.14 1.17 1.23 1.28 1.31 1.33 1.36 1.33 1.30 1.39 1.42 1.47 1.55 1.60 1.54 1.42 1.32 1.21 1.15 1.09 1.07 1.08 1.06 1.03 1.02 1.02 1.02 1.04 1.07 1.09 1.10 1.12 1.14 1.13 1.16 1.20 1.22 1.25 1.22 1.19 1.21 1.20 1.18 1.17 1.18 1.18 1.15 1.13 1.13 1.15 1.15 1.15
0.57 0.60 0.66 0.77 0.82 0.87 0.90 0.91 0.94 1.01 1.05 1.09 1.13 1.18 1.24 1.29 1.33 1.33 1.30 1.34 1.42 1.50 1.55 1.61 1.64 1.62 1.53 1.43 1.33 1.24 1.17 1.12 1.08 1.06 1.05 1.04 1.04 1.05 1.07 1.08 1.10 1.13 1.14 1.17 1.16 1.16 1.18 1.21 1.22 1.23 1.20 1.18 1.20 1.20 1.19 1.17 1.18 1.18 1.18 1.18 1.18 1.17 1.14
0.60 0.61 0.69 0.76 0.82 0.85 0.87 0.90 0.97 1.02 1.08 1.12 1.16 1.21 1.24 1.25 1.26 1.25 1.27 1.32 1.42 1.53 1.59 1.63 1.64 1.64 1.60 1.53 1.43 1.33 1.25 1.21 1.17 1.13 1.09 1.08 1.07 1.06 1.06 1.08 1.10 1.13 1.17 1.19 1.18 1.17 1.17 1.19 1.18 1.20 1.21 1.19 1.18 1.19 1.23 1.23 1.22 1.23 1.24 1.22 1.20 1.19 1.16
0.65 0.69 0.74 0.76 0.81 0.86 0.90 0.96 1.01 1.07 1.11 1.13 1.16 1.17 1.17 1.20 1.26 1.31 1.33 1.37 1.41 1.50 1.55 1.64 1.66 1.64 1.61 1.57 1.50 1.43 1.36 1.29 1.25 1.22 1.18 1.14 1.10 1.07 1.07 1.09 1.11 1.13 1.16 1.18 1.17 1.16 1.16 1.19 1.21 1.19 1.19 1.22 1.21 1.20 1.24 1.26 1.27 1.27 1.25 1.22 1.20 1.20 1.16
0.72 0.74 0.76 0.79 0.84 0.89 0.96 1.01 1.04 1.04 1.07 1.10 1.14 1.17 1.18 1.24 1.29 1.30 1.30 1.33 1.39 1.43 1.52 1.59 1.60 1.61 1.61 1.57 1.55 1.53 1.49 1.40 1.31 1.27 1.26 1.22 1.15 1.10 1.08 1.10 1.12 1.13 1.14 1.15 1.14 1.14 1.16 1.17 1.21 1.23 1.21 1.22 1.25 1.28 1.29 1.30 1.34 1.33 1.29 1.25 1.20 1.17 1.16
0.80 0.77 0.79 0.84 0.89 0.93 0.97 0.99 1.01 1.03 1.03 1.08 1.15 1.22 1.28 1.29 1.33 1.39 1.40 1.42 1.45 1.46 1.52 1.57 1.56 1.58 1.59 1.57 1.59 1.58 1.56 1.49 1.41 1.35 1.29 1.26 1.22 1.17 1.12 1.10 1.13 1.13 1.13 1.14 1.17 1.17 1.17 1.18 1.16 1.21 1.26 1.25 1.25 1.28 1.32 1.33 1.35 1.36 1.36 1.33 1.30 1.25 1.20
0.79 0.85 0.85 0.89 0.92 0.95 0.98 0.99 1.00 1.03 1.08 1.17 1.23 1.30 1.35 1.36 1.40 1.43 1.42 1.47 1.49 1.52 1.57 1.56 1.56 1.55 1.55 1.58 1.61 1.60 1.57 1.54 1.51 1.44 1.36 1.32 1.28 1.23 1.17 1.14 1.12 1.12 1.12 1.12 1.15 1.19 1.21 1.18 1.17 1.19 1.27 1.31 1.32 1.33 1.35 1.37 1.39 1.41 1.43 1.43 1.42 1.39 1.33
0.79 0.86 0.87 0.88 0.92 0.95 1.01 1.03 1.10 1.09 1.11 1.24 1.37 1.41 1.42 1.41 1.41 1.42 1.46 1.49 1.53 1.59 1.57 1.54 1.55 1.57 1.56 1.56 1.58 1.59 1.59 1.58 1.53 1.49 1.46 1.40 1.34 1.32 1.28 1.20 1.15 1.13 1.12 1.11 1.15 1.21 1.21 1.20 1.23 1.24 1.29 1.33 1.34 1.34 1.39 1.41 1.47 1.51 1.54 1.56 1.57 1.56 1.55
0.67 0.70 0.74 0.77 0.78 0.82 0.91 0.97 0.99 1.08 1.23 1.37 1.48 1.54 1.55 1.51 1.46 1.48 1.52 1.55 1.58 1.57 1.57 1.55 1.55 1.55 1.56 1.59 1.59 1.59 1.59 1.58 1.55 1.51 1.49 1.50 1.47 1.42 1.38 1.30 1.20 1.15 1.16 1.17 1.19 1.21 1.23 1.27 1.28 1.31 1.32 1.32 1.35 1.38 1.41 1.44 1.51 1.54 1.57 1.60 1.63 1.66 1.67
0.66 0.70 0.71 0.76 0.78 0.81 0.73 0.71 0.86 0.89 0.92 0.98 1.17 1.35 1.45 1.48 1.47 1.47 1.47 1.49 1.52 1.54 1.54 1.55 1.53 1.51 1.53 1.55 1.58 1.62 1.62 1.59 1.56 1.54 1.53 1.53 1.54 1.53 1.48 1.42 1.32 1.26 1.25 1.23 1.21 1.20 1.21 1.25 1.28 1.30 1.31 1.33 1.35 1.38 1.42 1.45 1.50 1.53 1.56 1.60 1.64 1.68 1.71
0.87 0.85 0.97 1.03 1.05 1.05 1.01 0.91 1.08 1.04 0.98 1.01 0.97 1.03 1.00 1.11 1.24 1.30 1.34 1.41 1.42 1.47 1.48 1.49 1.48 1.48 1.49 1.49 1.52 1.54 1.59 1.61 1.60 1.57 1.56 1.55 1.55 1.54 1.54 1.53 1.46 1.34 1.32 1.30 1.29 1.29 1.28 1.28 1.28 1.27 1.29 1.33 1.37 1.37 1.36 1.46 1.53 1.55 1.58 1.61 1.64 1.69 1.72
1.06 1.04 1.07 1.11 1.14 1.17 1.23 1.29 1.29 1.21 1.09 1.04 0.99 0.96 1.07 1.17 1.11 1.04 1.11 1.22 1.28 1.32 1.39 1.42 1.40 1.40 1.44 1.46 1.48 1.51 1.57 1.60 1.60 1.62 1.61 1.58 1.57 1.54 1.53 1.54 1.54 1.48 1.42 1.33 1.30 1.28 1.27 1.24 1.24 1.27 1.29 1.33 1.36 1.36 1.36 1.44 1.54 1.59 1.61 1.63 1.66 1.70 1.72
1.16 1.20 1.16 1.13 1.10 1.16 1.24 1.24 1.13 1.13 1.14 1.05 0.96 1.04 1.05 1.15 1.18 1.14 1.06 0.97 0.99 1.11 1.21 1.26 1.29 1.36 1.41 1.45 1.47 1.51 1.56 1.59 1.60 1.59 1.62 1.63 1.56 1.55 1.59 1.61 1.62 1.57 1.53 1.37 1.29 1.27 1.28 1.30 1.31 1.32 1.34 1.35 1.37 1.40 1.40 1.43 1.52 1.57 1.62 1.67 1.73 1.76 1.75
1.13 1.15 1.15 1.15 1.09 1.06 1.12 1.15 1.08 1.06 1.11 1.08 0.96 0.98 1.10 1.11 1.08 1.08 1.07 1.08 1.07 0.98 0.92 1.04 1.13 1.24 1.32 1.42 1.49 1.52 1.55 1.58 1.59 1.59 1.61 1.61 1.62 1.64 1.63 1.64 1.64 1.66 1.67 1.57 1.47 1.39 1.39 1.42 1.38 1.39 1.42 1.45 1.47 1.51 1.50 1.51 1.57 1.61 1.63 1.69 1.75 1.81 1.85
1.05 1.09 1.17 1.19 1.14 1.07 1.10 1.15 1.08 1.02 1.08 1.08 1.15 1.09 1.12 1.18 1.14 1.08 1.06 1.07 1.08 1.06 1.00 0.94 0.96 1.12 1.24 1.35 1.45 1.49 1.52 1.55 1.57 1.59 1.59 1.62 1.67 1.70 1.70 1.73 1.73 1.72 1.71 1.69 1.65 1.57 1.53 1.51 1.50 1.47 1.49 1.54 1.56 1.57 1.59 1.59 1.64 1.69 1.71 1.73 1.77 1.83 1.88
1.05 1.04 1.10 1.16 1.18 1.16 1.04 1.07 1.11 1.16 1.11 1.11 1.12 1.15 1.06 1.07 1.12 1.08 1.08 1.08 1.04 1.00 1.01 1.05 1.09 1.10 1.12 1.20 1.32 1.41 1.46 1.52 1.54 1.56 1.62 1.67 1.69 1.74 1.75 1.75 1.72 1.73 1.72 1.70 1.70 1.67 1.62 1.59 1.58 1.56 1.57 1.62 1.65 1.64 1.67 1.70 1.72 1.78 1.80 1.82 1.84 1.87 1.87
1.07 1.07 1.15 1.21 1.22 1.18 1.10 1.07 1.11 1.08 1.02 1.01 1.04 1.06 1.06 1.03 1.00 1.09 1.10 1.04 1.00 1.07 1.10 1.10 1.07 1.09 1.12 1.13 1.19 1.28 1.38 1.45 1.52 1.57 1.61 1.69 1.73 1.71 1.72 1.77 1.78 1.75 1.73 1.72 1.70 1.65 1.62 1.62 1.61 1.59 1.59 1.64 1.68 1.70 1.73 1.78 1.79 1.81 1.84 1.86 1.88 1.88 1.88
1.08 1.08 1.10 1.10 1.09 1.15 1.13 1.08 1.05 1.00 0.93 0.98 1.01 1.02 1.03 1.06 1.00 0.98 1.07 1.05 1.07 1.12 1.11 1.13 1.09 1.06 1.07 1.11 1.16 1.22 1.29 1.37 1.44 1.51 1.59 1.64 1.71 1.72 1.72 1.77 1.76 1.75 1.75 1.71 1.68 1.64 1.61 1.61 1.60 1.57 1.56 1.60 1.65 1.71 1.74 1.78 1.81 1.83 1.83 1.84 1.84 1.81 1.79
1.06 1.06 1.10 1.13 1.11 1.08 1.09 1.08 1.08 1.02 0.99 1.01 1.05 1.03 1.03 1.02 0.99 1.04 1.00 1.00 1.15 1.17 1.14 1.11 1.14 1.09 1.07 1.07 1.11 1.17 1.23 1.30 1.39 1.46 1.53 1.58 1.66 1.71 1.72 1.74 1.76 1.76 1.75 1.73 1.68 1.63 1.59 1.59 1.60 1.58 1.54 1.53 1.57 1.65 1.71 1.78 1.82 1.86 1.86 1.83 1.82 1.80 1.79
1.04 1.02 1.04 1.06 1.08 1.10 1.09 1.06 1.07 1.02 1.00 1.04 1.08 1.09 1.08 1.11 1.06 1.07 1.02 1.07 1.16 1.14 1.13 1.12 1.15 1.13 1.08 1.08 1.12 1.16 1.22 1.29 1.35 1.42 1.50 1.57 1.63 1.63 1.67 1.71 1.75 1.70 1.74 1.73 1.69 1.64 1.59 1.59 1.60 1.55 1.53 1.52 1.50 1.56 1.64 1.73 1.81 1.86 1.90 1.87 1.83 1.83 1.86
1.00 1.03 1.04 1.06 1.07 1.08 1.10 1.14 1.11 1.06 0.99 1.02 1.07 1.09 1.17 1.17 1.16 1.08 1.11 1.21 1.20 1.16 1.16 1.15 1.13 1.13 1.12 1.13 1.16 1.21 1.25 1.27 1.33 1.40 1.49 1.56 1.63 1.66 1.68 1.68 1.72 1.70 1.71 1.70 1.67 1.66 1.62 1.61 1.62 1.59 1.57 1.54 1.56 1.58 1.65 1.73 1.78 1.83 1.81 1.83 1.84 1.88 1.91
0.91 0.97 1.00 0.99 1.04 1.07 1.08 1.07 1.06 1.04 1.02 0.99 1.04 1.11 1.17 1.17 1.20 1.21 1.24 1.25 1.28 1.26 1.21 1.18 1.16 1.13 1.14 1.15 1.20 1.28 1.31 1.29 1.33 1.40 1.48 1.56 1.62 1.68 1.72 1.75 1.74 1.73 1.72 1.71 1.68 1.67 1.66 1.66 1.65 1.63 1.61 1.59 1.61 1.66 1.70 1.75 1.75 1.73 1.77 1.82 1.83 1.85 1.87
0.93 0.97 1.03 1.06 1.07 1.07 1.08 1.09 1.07 1.04 1.03 1.01 1.08 1.13 1.16 1.16 1.18 1.22 1.26 1.29 1.32 1.32 1.27 1.23 1.21 1.20 1.18 1.18 1.22 1.28 1.33 1.35 1.39 1.41 1.46 1.55 1.61 1.62 1.65 1.70 1.72 1.70 1.69 1.68 1.67 1.64 1.64 1.64 1.63 1.62 1.63 1.62 1.65 1.68 1.73 1.69 1.69 1.71 1.73 1.77 1.79 1.83 1.86
0.96 0.98 1.02 1.05 1.06 1.08 1.08 1.09 1.09 1.10 1.09 1.09 1.14 1.16 1.16 1.15 1.17 1.21 1.24 1.28 1.33 1.35 1.28 1.25 1.27 1.31 1.31 1.31 1.28 1.30 1.36 1.39 1.43 1.47 1.51 1.55 1.58 1.62 1.65 1.70 1.75 1.73 1.75 1.81 1.88 1.86 1.77 1.73 1.74 1.76 1.77 1.75 1.73 1.70 1.66 1.66 1.64 1.67 1.70 1.73 1.75 1.77 1.80
1.00 1.02 1.06 1.11 1.12 1.13 1.14 1.16 1.15 1.14 1.15 1.17 1.19 1.17 1.16 1.15 1.16 1.19 1.25 1.30 1.34 1.35 1.29 1.26 1.31 1.32 1.33 1.36 1.36 1.35 1.36 1.41 1.47 1.54 1.52 1.51 1.52 1.52 1.57 1.71 1.77 1.77 1.73 1.72 1.84 1.93 1.96 1.94 1.83 1.81 1.80 1.73 1.75 1.79 1.72 1.66 1.69 1.71 1.71 1.70 1.72 1.71 1.70
1.03 1.06 1.08 1.11 1.09 1.11 1.12 1.14 1.17 1.18 1.17 1.21 1.23 1.23 1.22 1.19 1.19 1.22 1.27 1.31 1.36 1.39 1.37 1.36 1.31 1.33 1.33 1.37 1.37 1.43 1.41 1.41 1.42 1.51 1.49 1.51 1.50 1.50 1.48 1.50 1.59 1.67 1.70 1.73 1.80 1.85 1.87 1.89 1.88 1.88 1.88 1.83 1.73 1.71 1.72 1.72 1.73 1.71 1.72 1.73 1.73 1.75 1.75
1.10 1.12 1.13 1.16 1.13 1.11 1.12 1.13 1.16 1.16 1.18 1.23 1.25 1.25 1.24 1.21 1.21 1.24 1.29 1.33 1.40 1.45 1.46 1.45 1.38 1.33 1.35 1.38 1.43 1.49 1.50 1.51 1.52 1.52 1.48 1.51 1.53 1.53 1.50 1.47 1.46 1.51 1.62 1.65 1.70 1.77 1.80 1.82 1.80 1.80 1.80 1.79 1.79 1.78 1.77 1.76 1.74 1.72 1.70 1.70 1.68 1.66 1.63